Wetterdaten: Sonntag, 02.06.2013
Datum Zeit Temp. Aussen +5cm Feuchte Auss Luftdruck Regen Sonnenschein Regendauer UV Solar Windben
02.06.2013 00:00 9,8 C 7,9 C 87 % 1021,3 hPa 0,0 l/m 0 min 0 min 0,0 UV-I 0 W/m 0,0 km/h (0 Bft)
02.06.2013 00:02 9,8 C 7,9 C 87 % 1021,3 hPa 0,0 l/m 0 min 0 min 0,0 UV-I 0 W/m 7,7 km/h (2 Bft)
02.06.2013 00:06 9,7 C 7,9 C 87 % 1021,3 hPa 0,0 l/m 0 min 0 min 0,0 UV-I 0 W/m 10,3 km/h (2 Bft)
02.06.2013 00:08 9,7 C 7,9 C 88 % 1021,4 hPa 0,0 l/m 0 min 0 min 0,0 UV-I 0 W/m 7,7 km/h (2 Bft)
02.06.2013 00:10 9,7 C 8,4 C 88 % 1021,3 hPa 0,0 l/m 0 min 0 min 0,0 UV-I 0 W/m 10,3 km/h (2 Bft)
02.06.2013 00:12 9,6 C 7,9 C 88 % 1021,3 hPa 0,0 l/m 0 min 0 min 0,0 UV-I 0 W/m 0,0 km/h (0 Bft)
02.06.2013 00:14 9,6 C 7,9 C 88 % 1021,3 hPa 0,0 l/m 0 min 0 min 0,0 UV-I 0 W/m 7,7 km/h (2 Bft)
02.06.2013 00:16 9,6 C 7,9 C 88 % 1021,3 hPa 0,0 l/m 0 min 0 min 0,0 UV-I 0 W/m 5,1 km/h (1 Bft)
02.06.2013 00:18 9,5 C 7,9 C 88 % 1021,3 hPa 0,0 l/m 0 min 0 min 0,0 UV-I 0 W/m 2,6 km/h (1 Bft)
02.06.2013 00:20 9,5 C 7,9 C 88 % 1021,4 hPa 0,0 l/m 0 min 0 min 0,0 UV-I 0 W/m 0,0 km/h (0 Bft)
02.06.2013 00:22 9,4 C 7,9 C 88 % 1021,4 hPa 0,0 l/m 0 min 0 min 0,0 UV-I 0 W/m 0,0 km/h (0 Bft)
02.06.2013 00:24 9,4 C 7,9 C 88 % 1021,4 hPa 0,0 l/m 0 min 0 min 0,0 UV-I 0 W/m 0,0 km/h (0 Bft)
02.06.2013 00:26 9,4 C 7,9 C 89 % 1021,4 hPa 0,0 l/m 0 min 0 min 0,0 UV-I 0 W/m 5,1 km/h (1 Bft)
02.06.2013 00:28 9,3 C 7,9 C 89 % 1021,4 hPa 0,0 l/m 0 min 0 min 0,0 UV-I 0 W/m 0,0 km/h (0 Bft)
02.06.2013 00:30 9,3 C 7,9 C 89 % 1021,4 hPa 0,0 l/m 0 min 0 min 0,0 UV-I 0 W/m 7,7 km/h (2 Bft)
02.06.2013 00:32 9,3 C 7,9 C 89 % 1021,4 hPa 0,0 l/m 0 min 0 min 0,0 UV-I 0 W/m 0,0 km/h (0 Bft)
02.06.2013 00:34 9,3 C 7,9 C 89 % 1021,5 hPa 0,0 l/m 0 min 0 min 0,0 UV-I 0 W/m 5,1 km/h (1 Bft)
02.06.2013 00:36 9,2 C 7,9 C 89 % 1021,4 hPa 0,0 l/m 0 min 0 min 0,0 UV-I 0 W/m 7,7 km/h (2 Bft)
02.06.2013 00:38 9,2 C 7,9 C 89 % 1021,5 hPa 0,0 l/m 0 min 0 min 0,0 UV-I 0 W/m 10,3 km/h (2 Bft)
02.06.2013 00:40 9,2 C 7,9 C 89 % 1021,5 hPa 0,0 l/m 0 min 0 min 0,0 UV-I 0 W/m 7,7 km/h (2 Bft)
02.06.2013 00:42 9,2 C 7,9 C 89 % 1021,5 hPa 0,0 l/m 0 min 0 min 0,0 UV-I 0 W/m 7,7 km/h (2 Bft)
02.06.2013 00:44 9,2 C 7,9 C 89 % 1021,6 hPa 0,0 l/m 0 min 0 min 0,0 UV-I 0 W/m 0,0 km/h (0 Bft)
02.06.2013 00:46 9,1 C 7,9 C 89 % 1021,5 hPa 0,0 l/m 0 min 0 min 0,0 UV-I 0 W/m 5,1 km/h (1 Bft)
02.06.2013 00:48 9,1 C 7,9 C 90 % 1021,6 hPa 0,0 l/m 0 min 0 min 0,0 UV-I 0 W/m 2,6 km/h (1 Bft)
02.06.2013 00:50 9,1 C 7,9 C 90 % 1021,6 hPa 0,0 l/m 0 min 0 min 0,0 UV-I 0 W/m 15,4 km/h (3 Bft)
02.06.2013 00:52 9,1 C 7,9 C 90 % 1021,6 hPa 0,0 l/m 0 min 0 min 0,0 UV-I 0 W/m 5,1 km/h (1 Bft)
02.06.2013 00:54 9,1 C 8,4 C 90 % 1021,6 hPa 0,0 l/m 0 min 0 min 0,0 UV-I 0 W/m 0,0 km/h (0 Bft)
02.06.2013 00:56 9,1 C 8,4 C 90 % 1021,6 hPa 0,0 l/m 0 min 0 min 0,0 UV-I 0 W/m 12,9 km/h (3 Bft)
02.06.2013 00:58 9,1 C 8,4 C 90 % 1021,6 hPa 0,0 l/m 0 min 0 min 0,0 UV-I 0 W/m 2,6 km/h (1 Bft)
02.06.2013 01:00 9,1 C 8,4 C 90 % 1021,6 hPa 0,0 l/m 0 min 0 min 0,0 UV-I 0 W/m 7,7 km/h (2 Bft)
02.06.2013 01:02 9,1 C 8,4 C 90 % 1021,7 hPa 0,0 l/m 0 min 0 min 0,0 UV-I 0 W/m 12,9 km/h (3 Bft)
02.06.2013 01:04 9,1 C 8,4 C 91 % 1021,7 hPa 0,0 l/m 0 min 0 min 0,0 UV-I 0 W/m 7,7 km/h (2 Bft)
02.06.2013 01:06 9,1 C 8,4 C 91 % 1021,6 hPa 0,0 l/m 0 min 0 min 0,0 UV-I 0 W/m 7,7 km/h (2 Bft)
02.06.2013 01:08 9,1 C 8,4 C 91 % 1021,7 hPa 0,0 l/m 0 min 0 min 0,0 UV-I 0 W/m 12,9 km/h (3 Bft)
02.06.2013 01:10 9,1 C 8,4 C 91 % 1021,7 hPa 0,0 l/m 0 min 0 min 0,0 UV-I 0 W/m 7,7 km/h (2 Bft)
02.06.2013 01:12 9,1 C 8,4 C 91 % 1021,7 hPa 0,0 l/m 0 min 0 min 0,0 UV-I 0 W/m 15,4 km/h (3 Bft)
02.06.2013 01:14 9,1 C 8,4 C 91 % 1021,8 hPa 0,0 l/m 0 min 0 min 0,0 UV-I 0 W/m 18,0 km/h (3 Bft)
02.06.2013 01:16 9,1 C 8,4 C 91 % 1021,8 hPa 0,0 l/m 0 min 0 min 0,0 UV-I 0 W/m 12,9 km/h (3 Bft)
02.06.2013 01:18 9,1 C 8,4 C 91 % 1021,8 hPa 0,0 l/m 0 min 0 min 0,0 UV-I 0 W/m 10,3 km/h (2 Bft)
02.06.2013 01:20 9,1 C 8,4 C 91 % 1021,9 hPa 0,0 l/m 0 min 0 min 0,0 UV-I 0 W/m 0,0 km/h (0 Bft)
02.06.2013 01:22 9,1 C 8,4 C 91 % 1021,9 hPa 0,0 l/m 0 min 0 min 0,0 UV-I 0 W/m 12,9 km/h (3 Bft)
02.06.2013 01:24 9,2 C 8,4 C 91 % 1021,9 hPa 0,0 l/m 0 min 0 min 0,0 UV-I 0 W/m 18,0 km/h (3 Bft)
02.06.2013 01:26 9,2 C 8,4 C 91 % 1021,9 hPa 0,0 l/m 0 min 0 min 0,0 UV-I 0 W/m 15,4 km/h (3 Bft)
02.06.2013 01:28 9,1 C 8,4 C 91 % 1022,0 hPa 0,0 l/m 0 min 0 min 0,0 UV-I 0 W/m 10,3 km/h (2 Bft)
02.06.2013 01:30 9,1 C 8,4 C 91 % 1022,1 hPa 0,0 l/m 0 min 0 min 0,0 UV-I 0 W/m 18,0 km/h (3 Bft)
02.06.2013 01:32 9,2 C 8,4 C 91 % 1022,0 hPa 0,0 l/m 0 min 0 min 0,0 UV-I 0 W/m 12,9 km/h (3 Bft)
02.06.2013 01:34 9,2 C 8,4 C 91 % 1022,0 hPa 0,0 l/m 0 min 0 min 0,0 UV-I 0 W/m 10,3 km/h (2 Bft)
02.06.2013 01:36 9,2 C 8,4 C 91 % 1022,0 hPa 0,0 l/m 0 min 0 min 0,0 UV-I 0 W/m 10,3 km/h (2 Bft)
02.06.2013 01:38 9,2 C 8,4 C 91 % 1022,1 hPa 0,0 l/m 0 min 0 min 0,0 UV-I 0 W/m 12,9 km/h (3 Bft)
02.06.2013 01:40 9,2 C 8,4 C 91 % 1022,1 hPa 0,0 l/m 0 min 0 min 0,0 UV-I 0 W/m 12,9 km/h (3 Bft)
02.06.2013 01:42 9,2 C 8,4 C 91 % 1022,0 hPa 0,0 l/m 0 min 0 min 0,0 UV-I 0 W/m 20,6 km/h (4 Bft)
02.06.2013 01:44 9,2 C 8,4 C 91 % 1022,0 hPa 0,0 l/m 0 min 0 min 0,0 UV-I 0 W/m 10,3 km/h (2 Bft)
02.06.2013 01:46 9,2 C 8,4 C 91 % 1022,0 hPa 0,0 l/m 0 min 0 min 0,0 UV-I 0 W/m 10,3 km/h (2 Bft)
02.06.2013 01:48 9,2 C 8,4 C 91 % 1022,0 hPa 0,0 l/m 0 min 0 min 0,0 UV-I 0 W/m 10,3 km/h (2 Bft)
02.06.2013 01:50 9,2 C 8,4 C 91 % 1022,1 hPa 0,0 l/m 0 min 0 min 0,0 UV-I 0 W/m 18,0 km/h (3 Bft)
02.06.2013 01:52 9,2 C 8,4 C 91 % 1022,0 hPa 0,0 l/m 0 min 0 min 0,0 UV-I 0 W/m 12,9 km/h (3 Bft)
02.06.2013 01:54 9,1 C 8,4 C 91 % 1022,1 hPa 0,0 l/m 0 min 0 min 0,0 UV-I 0 W/m 7,7 km/h (2 Bft)
02.06.2013 01:56 9,1 C 8,4 C 91 % 1022,1 hPa 0,0 l/m 0 min 0 min 0,0 UV-I 0 W/m 20,6 km/h (4 Bft)
02.06.2013 01:58 9,1 C 7,9 C 91 % 1022,1 hPa 0,0 l/m 0 min 0 min 0,0 UV-I 0 W/m 7,7 km/h (2 Bft)
02.06.2013 02:00 9,1 C 7,9 C 91 % 1022,1 hPa 0,0 l/m 0 min 0 min 0,0 UV-I 0 W/m 10,3 km/h (2 Bft)
02.06.2013 02:02 9,1 C 7,9 C 91 % 1022,1 hPa 0,0 l/m 0 min 0 min 0,0 UV-I 0 W/m 18,0 km/h (3 Bft)
02.06.2013 02:04 9,1 C 7,9 C 91 % 1022,1 hPa 0,0 l/m 0 min 0 min 0,0 UV-I 0 W/m 12,9 km/h (3 Bft)
02.06.2013 02:06 9,1 C 7,9 C 91 % 1022,1 hPa 0,0 l/m 0 min 0 min 0,0 UV-I 0 W/m 7,7 km/h (2 Bft)
02.06.2013 02:08 9,1 C 7,9 C 91 % 1022,2 hPa 0,0 l/m 0 min 0 min 0,0 UV-I 0 W/m 2,6 km/h (1 Bft)
02.06.2013 02:10 9,0 C 7,3 C 91 % 1022,2 hPa 0,0 l/m 0 min 0 min 0,0 UV-I 0 W/m 2,6 km/h (1 Bft)
02.06.2013 02:12 9,0 C 7,3 C 91 % 1022,2 hPa 0,0 l/m 0 min 0 min 0,0 UV-I 0 W/m 12,9 km/h (3 Bft)
02.06.2013 02:14 8,9 C 7,3 C 91 % 1022,2 hPa 0,0 l/m 0 min 0 min 0,0 UV-I 0 W/m 7,7 km/h (2 Bft)
02.06.2013 02:16 8,9 C 7,3 C 91 % 1022,2 hPa 0,0 l/m 0 min 0 min 0,0 UV-I 0 W/m 5,1 km/h (1 Bft)
02.06.2013 02:18 8,9 C 7,3 C 91 % 1022,2 hPa 0,0 l/m 0 min 0 min 0,0 UV-I 0 W/m 7,7 km/h (2 Bft)
02.06.2013 02:20 8,9 C 7,3 C 91 % 1022,3 hPa 0,0 l/m 0 min 0 min 0,0 UV-I 0 W/m 0,0 km/h (0 Bft)
02.06.2013 02:22 8,8 C 7,3 C 91 % 1022,3 hPa 0,0 l/m 0 min 0 min 0,0 UV-I 0 W/m 0,0 km/h (0 Bft)
02.06.2013 02:24 8,8 C 7,3 C 91 % 1022,3 hPa 0,0 l/m 0 min 0 min 0,0 UV-I 0 W/m 0,0 km/h (0 Bft)
02.06.2013 02:26 8,8 C 6,8 C 91 % 1022,3 hPa 0,0 l/m 0 min 0 min 0,0 UV-I 0 W/m 0,0 km/h (0 Bft)
02.06.2013 02:28 8,8 C 6,8 C 91 % 1022,3 hPa 0,0 l/m 0 min 0 min 0,0 UV-I 0 W/m 2,6 km/h (1 Bft)
02.06.2013 02:30 8,8 C 6,8 C 91 % 1022,3 hPa 0,0 l/m 0 min 0 min 0,0 UV-I 0 W/m 0,0 km/h (0 Bft)
02.06.2013 02:32 8,7 C 6,8 C 91 % 1022,3 hPa 0,0 l/m 0 min 0 min 0,0 UV-I 0 W/m 0,0 km/h (0 Bft)
02.06.2013 02:34 8,7 C 6,8 C 91 % 1022,2 hPa 0,0 l/m 0 min 0 min 0,0 UV-I 0 W/m 0,0 km/h (0 Bft)
02.06.2013 02:36 8,7 C 6,8 C 91 % 1022,2 hPa 0,0 l/m 0 min 0 min 0,0 UV-I 0 W/m 0,0 km/h (0 Bft)
02.06.2013 02:38 8,6 C 6,8 C 91 % 1022,2 hPa 0,0 l/m 0 min 0 min 0,0 UV-I 0 W/m 0,0 km/h (0 Bft)
02.06.2013 02:40 8,6 C 6,8 C 91 % 1022,2 hPa 0,0 l/m 0 min 0 min 0,0 UV-I 0 W/m 0,0 km/h (0 Bft)
02.06.2013 02:42 8,6 C 6,8 C 91 % 1022,2 hPa 0,0 l/m 0 min 0 min 0,0 UV-I 0 W/m 0,0 km/h (0 Bft)
02.06.2013 02:44 8,6 C 6,8 C 91 % 1022,2 hPa 0,0 l/m 0 min 0 min 0,0 UV-I 0 W/m 0,0 km/h (0 Bft)
02.06.2013 02:46 8,5 C 6,2 C 91 % 1022,1 hPa 0,0 l/m 0 min 0 min 0,0 UV-I 0 W/m 0,0 km/h (0 Bft)
02.06.2013 02:48 8,4 C 6,2 C 91 % 1022,1 hPa 0,0 l/m 0 min 0 min 0,0 UV-I 0 W/m 0,0 km/h (0 Bft)
02.06.2013 02:50 8,4 C 6,2 C 91 % 1022,2 hPa 0,0 l/m 0 min 0 min 0,0 UV-I 0 W/m 0,0 km/h (0 Bft)
02.06.2013 02:52 8,4 C 6,2 C 91 % 1022,1 hPa 0,0 l/m 0 min 0 min 0,0 UV-I 0 W/m 0,0 km/h (0 Bft)
02.06.2013 02:54 8,3 C 6,2 C 91 % 1022,1 hPa 0,0 l/m 0 min 0 min 0,0 UV-I 0 W/m 0,0 km/h (0 Bft)
02.06.2013 02:56 8,3 C 6,2 C 91 % 1022,1 hPa 0,0 l/m 0 min 0 min 0,0 UV-I 0 W/m 0,0 km/h (0 Bft)
02.06.2013 02:58 8,3 C 6,2 C 91 % 1022,2 hPa 0,0 l/m 0 min 0 min 0,0 UV-I 0 W/m 0,0 km/h (0 Bft)
02.06.2013 03:00 8,2 C 6,2 C 91 % 1022,2 hPa 0,0 l/m 0 min 0 min 0,0 UV-I 0 W/m 0,0 km/h (0 Bft)
02.06.2013 03:02 8,2 C 6,2 C 91 % 1022,2 hPa 0,0 l/m 0 min 0 min 0,0 UV-I 0 W/m 2,6 km/h (1 Bft)
02.06.2013 03:06 8,1 C 6,2 C 91 % 1022,2 hPa 0,0 l/m 0 min 0 min 0,0 UV-I 0 W/m 0,0 km/h (0 Bft)
02.06.2013 03:08 8,1 C 5,7 C 91 % 1022,2 hPa 0,0 l/m 0 min 0 min 0,0 UV-I 0 W/m 0,0 km/h (0 Bft)
02.06.2013 03:10 8,1 C 5,7 C 91 % 1022,2 hPa 0,0 l/m 0 min 0 min 0,0 UV-I 0 W/m 0,0 km/h (0 Bft)
02.06.2013 03:12 8,0 C 5,7 C 91 % 1022,3 hPa 0,0 l/m 0 min 0 min 0,0 UV-I 0 W/m 0,0 km/h (0 Bft)
02.06.2013 03:14 8,0 C 5,7 C 91 % 1022,3 hPa 0,0 l/m 0 min 0 min 0,0 UV-I 0 W/m 0,0 km/h (0 Bft)
02.06.2013 03:16 7,9 C 5,7 C 91 % 1022,3 hPa 0,0 l/m 0 min 0 min 0,0 UV-I 0 W/m 0,0 km/h (0 Bft)
02.06.2013 03:18 7,9 C 5,7 C 91 % 1022,2 hPa 0,0 l/m 0 min 0 min 0,0 UV-I 0 W/m 0,0 km/h (0 Bft)
02.06.2013 03:20 7,9 C 5,7 C 91 % 1022,3 hPa 0,0 l/m 0 min 0 min 0,0 UV-I 0 W/m 0,0 km/h (0 Bft)
02.06.2013 03:22 7,8 C 5,7 C 91 % 1022,3 hPa 0,0 l/m 0 min 0 min 0,0 UV-I 0 W/m 0,0 km/h (0 Bft)
02.06.2013 03:24 7,8 C 5,7 C 91 % 1022,2 hPa 0,0 l/m 0 min 0 min 0,0 UV-I 0 W/m 0,0 km/h (0 Bft)
02.06.2013 03:26 7,8 C 5,7 C 91 % 1022,2 hPa 0,0 l/m 0 min 0 min 0,0 UV-I 0 W/m 0,0 km/h (0 Bft)
02.06.2013 03:28 7,7 C 5,7 C 91 % 1022,2 hPa 0,0 l/m 0 min 0 min 0,0 UV-I 0 W/m 0,0 km/h (0 Bft)
02.06.2013 03:30 7,7 C 5,7 C 91 % 1022,1 hPa 0,0 l/m 0 min 0 min 0,0 UV-I 0 W/m 0,0 km/h (0 Bft)
02.06.2013 03:32 7,7 C 5,7 C 91 % 1022,1 hPa 0,0 l/m 0 min 0 min 0,0 UV-I 0 W/m 0,0 km/h (0 Bft)
02.06.2013 03:34 7,6 C 5,7 C 91 % 1022,1 hPa 0,0 l/m 0 min 0 min 0,0 UV-I 0 W/m 0,0 km/h (0 Bft)
02.06.2013 03:36 7,6 C 5,7 C 91 % 1022,1 hPa 0,0 l/m 0 min 0 min 0,0 UV-I 0 W/m 0,0 km/h (0 Bft)
02.06.2013 03:38 7,5 C 5,7 C 91 % 1022,1 hPa 0,0 l/m 0 min 0 min 0,0 UV-I 0 W/m 0,0 km/h (0 Bft)
02.06.2013 03:40 7,5 C 5,1 C 91 % 1022,1 hPa 0,0 l/m 0 min 0 min 0,0 UV-I 0 W/m 0,0 km/h (0 Bft)
02.06.2013 03:42 7,4 C 5,1 C 91 % 1022,2 hPa 0,0 l/m 0 min 0 min 0,0 UV-I 0 W/m 0,0 km/h (0 Bft)
02.06.2013 03:44 7,4 C 5,1 C 91 % 1022,2 hPa 0,0 l/m 0 min 0 min 0,0 UV-I 0 W/m 0,0 km/h (0 Bft)
02.06.2013 03:46 7,4 C 5,1 C 91 % 1022,2 hPa 0,0 l/m 0 min 0 min 0,0 UV-I 0 W/m 0,0 km/h (0 Bft)
02.06.2013 03:48 7,3 C 5,1 C 91 % 1022,2 hPa 0,0 l/m 0 min 0 min 0,0 UV-I 0 W/m 0,0 km/h (0 Bft)
02.06.2013 03:50 7,3 C 5,1 C 91 % 1022,2 hPa 0,0 l/m 0 min 0 min 0,0 UV-I 0 W/m 0,0 km/h (0 Bft)
02.06.2013 03:52 7,3 C 5,1 C 91 % 1022,2 hPa 0,0 l/m 0 min 0 min 0,0 UV-I 0 W/m 0,0 km/h (0 Bft)
02.06.2013 03:54 7,2 C 5,1 C 91 % 1022,3 hPa 0,0 l/m 0 min 0 min 0,0 UV-I 0 W/m 0,0 km/h (0 Bft)
02.06.2013 03:56 7,2 C 5,1 C 91 % 1022,4 hPa 0,0 l/m 0 min 0 min 0,0 UV-I 0 W/m 0,0 km/h (0 Bft)
02.06.2013 03:58 7,2 C 5,1 C 91 % 1022,4 hPa 0,0 l/m 0 min 0 min 0,0 UV-I 0 W/m 0,0 km/h (0 Bft)
02.06.2013 04:00 7,1 C 5,1 C 91 % 1022,4 hPa 0,0 l/m 0 min 0 min 0,0 UV-I 0 W/m 0,0 km/h (0 Bft)
02.06.2013 04:02 7,1 C 5,1 C 91 % 1022,4 hPa 0,0 l/m 0 min 0 min 0,0 UV-I 0 W/m 0,0 km/h (0 Bft)
02.06.2013 04:04 7,1 C 5,1 C 91 % 1022,4 hPa 0,0 l/m 0 min 0 min 0,0 UV-I 0 W/m 0,0 km/h (0 Bft)
02.06.2013 04:06 7,1 C 5,1 C 91 % 1022,4 hPa 0,0 l/m 0 min 0 min 0,0 UV-I 0 W/m 0,0 km/h (0 Bft)
02.06.2013 04:08 7,0 C 5,1 C 91 % 1022,4 hPa 0,0 l/m 0 min 0 min 0,0 UV-I 0 W/m 0,0 km/h (0 Bft)
02.06.2013 04:10 6,9 C 5,1 C 91 % 1022,4 hPa 0,0 l/m 0 min 0 min 0,0 UV-I 0 W/m 0,0 km/h (0 Bft)
02.06.2013 04:12 6,9 C 5,1 C 91 % 1022,3 hPa 0,0 l/m 0 min 0 min 0,0 UV-I 0 W/m 0,0 km/h (0 Bft)
02.06.2013 04:14 6,9 C 5,1 C 91 % 1022,3 hPa 0,0 l/m 0 min 0 min 0,0 UV-I 0 W/m 0,0 km/h (0 Bft)
02.06.2013 04:16 6,9 C 4,6 C 91 % 1022,4 hPa 0,0 l/m 0 min 0 min 0,0 UV-I 0 W/m 0,0 km/h (0 Bft)
02.06.2013 04:18 6,8 C 4,6 C 91 % 1022,4 hPa 0,0 l/m 0 min 0 min 0,0 UV-I 0 W/m 0,0 km/h (0 Bft)
02.06.2013 04:20 6,8 C 4,6 C 91 % 1022,5 hPa 0,0 l/m 0 min 0 min 0,0 UV-I 0 W/m 0,0 km/h (0 Bft)
02.06.2013 04:22 6,8 C 4,6 C 91 % 1022,4 hPa 0,0 l/m 0 min 0 min 0,0 UV-I 0 W/m 0,0 km/h (0 Bft)
02.06.2013 04:24 6,7 C 4,6 C 91 % 1022,4 hPa 0,0 l/m 0 min 0 min 0,0 UV-I 0 W/m 0,0 km/h (0 Bft)
02.06.2013 04:26 6,7 C 4,6 C 91 % 1022,5 hPa 0,0 l/m 0 min 0 min 0,0 UV-I 0 W/m 0,0 km/h (0 Bft)
02.06.2013 04:28 6,7 C 4,6 C 91 % 1022,4 hPa 0,0 l/m 0 min 0 min 0,0 UV-I 0 W/m 0,0 km/h (0 Bft)
02.06.2013 04:30 6,6 C 4,6 C 91 % 1022,4 hPa 0,0 l/m 0 min 0 min 0,0 UV-I 0 W/m 0,0 km/h (0 Bft)
02.06.2013 04:32 6,6 C 4,6 C 91 % 1022,4 hPa 0,0 l/m 0 min 0 min 0,0 UV-I 0 W/m 0,0 km/h (0 Bft)
02.06.2013 04:34 6,6 C 4,6 C 91 % 1022,5 hPa 0,0 l/m 0 min 0 min 0,0 UV-I 0 W/m 0,0 km/h (0 Bft)
02.06.2013 04:36 6,6 C 4,6 C 91 % 1022,4 hPa 0,0 l/m 0 min 0 min 0,0 UV-I 0 W/m 0,0 km/h (0 Bft)
02.06.2013 04:38 6,5 C 4,6 C 91 % 1022,4 hPa 0,0 l/m 0 min 0 min 0,0 UV-I 0 W/m 0,0 km/h (0 Bft)
02.06.2013 04:40 6,5 C 4,6 C 92 % 1022,5 hPa 0,0 l/m 0 min 0 min 0,0 UV-I 0 W/m 0,0 km/h (0 Bft)
02.06.2013 04:42 6,4 C 4,6 C 92 % 1022,5 hPa 0,0 l/m 0 min 0 min 0,0 UV-I 0 W/m 0,0 km/h (0 Bft)
02.06.2013 04:44 6,4 C 4,6 C 92 % 1022,6 hPa 0,0 l/m 0 min 0 min 0,0 UV-I 0 W/m 0,0 km/h (0 Bft)
02.06.2013 04:46 6,4 C 5,1 C 92 % 1022,6 hPa 0,0 l/m 0 min 0 min 0,0 UV-I 0 W/m 0,0 km/h (0 Bft)
02.06.2013 04:48 6,4 C 5,1 C 92 % 1022,6 hPa 0,0 l/m 0 min 0 min 0,0 UV-I 0 W/m 0,0 km/h (0 Bft)
02.06.2013 04:50 6,3 C 5,1 C 92 % 1022,6 hPa 0,0 l/m 0 min 0 min 0,0 UV-I 0 W/m 0,0 km/h (0 Bft)
02.06.2013 04:52 6,3 C 4,6 C 92 % 1022,6 hPa 0,0 l/m 0 min 0 min 0,0 UV-I 0 W/m 0,0 km/h (0 Bft)
02.06.2013 04:54 6,3 C 4,6 C 92 % 1022,6 hPa 0,0 l/m 0 min 0 min 0,0 UV-I 0 W/m 0,0 km/h (0 Bft)
02.06.2013 04:56 6,3 C 4,6 C 92 % 1022,6 hPa 0,0 l/m 0 min 0 min 0,0 UV-I 0 W/m 0,0 km/h (0 Bft)
02.06.2013 04:58 6,3 C 4,6 C 92 % 1022,6 hPa 0,0 l/m 0 min 0 min 0,0 UV-I 0 W/m 0,0 km/h (0 Bft)
02.06.2013 05:00 6,3 C 4,6 C 92 % 1022,6 hPa 0,0 l/m 0 min 0 min 0,0 UV-I 0 W/m 0,0 km/h (0 Bft)
02.06.2013 05:02 6,2 C 4,6 C 92 % 1022,7 hPa 0,0 l/m 0 min 0 min 0,0 UV-I 0 W/m 0,0 km/h (0 Bft)
02.06.2013 05:04 6,2 C 4,6 C 92 % 1022,7 hPa 0,0 l/m 0 min 0 min 0,0 UV-I 0 W/m 0,0 km/h (0 Bft)
02.06.2013 05:06 6,2 C 4,6 C 92 % 1022,7 hPa 0,0 l/m 0 min 0 min 0,0 UV-I 0 W/m 0,0 km/h (0 Bft)
02.06.2013 05:08 6,2 C 4,6 C 92 % 1022,6 hPa 0,0 l/m 0 min 0 min 0,0 UV-I 0 W/m 0,0 km/h (0 Bft)
02.06.2013 05:10 6,2 C 4,6 C 92 % 1022,7 hPa 0,0 l/m 0 min 0 min 0,0 UV-I 0 W/m 0,0 km/h (0 Bft)
02.06.2013 05:12 6,2 C 4,6 C 92 % 1022,7 hPa 0,0 l/m 0 min 0 min 0,0 UV-I 0 W/m 0,0 km/h (0 Bft)
02.06.2013 05:14 6,2 C 4,6 C 93 % 1022,8 hPa 0,0 l/m 0 min 0 min 0,0 UV-I 0 W/m 0,0 km/h (0 Bft)
02.06.2013 05:16 6,2 C 5,1 C 93 % 1022,8 hPa 0,0 l/m 0 min 0 min 0,0 UV-I 0 W/m 0,0 km/h (0 Bft)
02.06.2013 05:18 6,2 C 5,1 C 93 % 1022,7 hPa 0,0 l/m 0 min 0 min 0,0 UV-I 0 W/m 0,0 km/h (0 Bft)
02.06.2013 05:20 6,2 C 5,7 C 93 % 1022,8 hPa 0,0 l/m 0 min 0 min 0,0 UV-I 0 W/m 0,0 km/h (0 Bft)
02.06.2013 05:22 6,2 C 5,7 C 93 % 1022,9 hPa 0,0 l/m 0 min 0 min 0,0 UV-I 0 W/m 0,0 km/h (0 Bft)
02.06.2013 05:24 6,2 C 5,7 C 93 % 1022,8 hPa 0,0 l/m 0 min 0 min 0,0 UV-I 0 W/m 0,0 km/h (0 Bft)
02.06.2013 05:26 6,2 C 5,7 C 93 % 1022,9 hPa 0,0 l/m 0 min 0 min 0,0 UV-I 0 W/m 0,0 km/h (0 Bft)
02.06.2013 05:28 6,2 C 5,7 C 93 % 1022,9 hPa 0,0 l/m 0 min 0 min 0,0 UV-I 0 W/m 0,0 km/h (0 Bft)
02.06.2013 05:30 6,2 C 5,7 C 93 % 1022,9 hPa 0,0 l/m 0 min 0 min 0,0 UV-I 5 W/m 0,0 km/h (0 Bft)
02.06.2013 05:32 6,2 C 5,7 C 93 % 1022,9 hPa 0,0 l/m 0 min 0 min 0,0 UV-I 5 W/m 0,0 km/h (0 Bft)
02.06.2013 05:34 6,2 C 5,7 C 94 % 1022,9 hPa 0,0 l/m 0 min 0 min 0,0 UV-I 5 W/m 0,0 km/h (0 Bft)
02.06.2013 05:36 6,3 C 5,7 C 94 % 1022,9 hPa 0,0 l/m 0 min 0 min 0,0 UV-I 7 W/m 0,0 km/h (0 Bft)
02.06.2013 05:38 6,3 C 5,7 C 94 % 1022,8 hPa 0,0 l/m 0 min 0 min 0,0 UV-I 7 W/m 0,0 km/h (0 Bft)
02.06.2013 05:40 6,3 C 5,7 C 94 % 1022,9 hPa 0,0 l/m 0 min 0 min 0,0 UV-I 9 W/m 0,0 km/h (0 Bft)
02.06.2013 05:42 6,3 C 5,1 C 94 % 1022,9 hPa 0,0 l/m 0 min 0 min 0,0 UV-I 9 W/m 0,0 km/h (0 Bft)
02.06.2013 05:44 6,3 C 5,1 C 94 % 1022,9 hPa 0,0 l/m 0 min 0 min 0,0 UV-I 11 W/m 0,0 km/h (0 Bft)
02.06.2013 05:46 6,3 C 5,1 C 94 % 1022,9 hPa 0,0 l/m 0 min 0 min 0,0 UV-I 11 W/m 0,0 km/h (0 Bft)
02.06.2013 05:48 6,3 C 5,1 C 94 % 1022,9 hPa 0,0 l/m 0 min 0 min 0,0 UV-I 11 W/m 0,0 km/h (0 Bft)
02.06.2013 05:50 6,3 C 5,1 C 94 % 1022,9 hPa 0,0 l/m 0 min 0 min 0,0 UV-I 12 W/m 0,0 km/h (0 Bft)
02.06.2013 05:52 6,3 C 5,1 C 94 % 1022,9 hPa 0,0 l/m 0 min 0 min 0,0 UV-I 12 W/m 0,0 km/h (0 Bft)
02.06.2013 05:54 6,3 C 5,1 C 94 % 1023,0 hPa 0,0 l/m 0 min 0 min 0,0 UV-I 14 W/m 0,0 km/h (0 Bft)
02.06.2013 05:56 6,3 C 5,1 C 94 % 1023,0 hPa 0,0 l/m 0 min 0 min 0,0 UV-I 16 W/m 0,0 km/h (0 Bft)
02.06.2013 05:58 6,3 C 5,1 C 94 % 1023,0 hPa 0,0 l/m 0 min 0 min 0,0 UV-I 16 W/m 0,0 km/h (0 Bft)
02.06.2013 06:00 6,3 C 5,1 C 94 % 1023,0 hPa 0,0 l/m 0 min 0 min 0,0 UV-I 18 W/m 0,0 km/h (0 Bft)
02.06.2013 06:02 6,3 C 5,1 C 94 % 1023,0 hPa 0,0 l/m 0 min 0 min 0,0 UV-I 18 W/m 0,0 km/h (0 Bft)
02.06.2013 06:04 6,3 C 5,1 C 94 % 1023,1 hPa 0,0 l/m 0 min 0 min 0,0 UV-I 19 W/m 0,0 km/h (0 Bft)
02.06.2013 06:06 6,3 C 5,1 C 94 % 1023,0 hPa 0,0 l/m 0 min 0 min 0,0 UV-I 21 W/m 0,0 km/h (0 Bft)
02.06.2013 06:08 6,2 C 5,1 C 94 % 1023,1 hPa 0,0 l/m 0 min 0 min 0,0 UV-I 23 W/m 0,0 km/h (0 Bft)
02.06.2013 06:10 6,2 C 5,1 C 94 % 1023,2 hPa 0,0 l/m 0 min 0 min 0,0 UV-I 21 W/m 0,0 km/h (0 Bft)
02.06.2013 06:12 6,2 C 5,1 C 94 % 1023,2 hPa 0,0 l/m 0 min 0 min 0,0 UV-I 25 W/m 0,0 km/h (0 Bft)
02.06.2013 06:14 6,2 C 5,1 C 94 % 1023,1 hPa 0,0 l/m 0 min 0 min 0,0 UV-I 26 W/m 0,0 km/h (0 Bft)
02.06.2013 06:16 6,2 C 5,1 C 94 % 1023,1 hPa 0,0 l/m 0 min 0 min 0,0 UV-I 26 W/m 0,0 km/h (0 Bft)
02.06.2013 06:18 6,2 C 5,1 C 94 % 1023,1 hPa 0,0 l/m 0 min 0 min 0,0 UV-I 28 W/m 0,0 km/h (0 Bft)
02.06.2013 06:20 6,2 C 5,1 C 94 % 1023,1 hPa 0,0 l/m 0 min 0 min 0,0 UV-I 28 W/m 0,0 km/h (0 Bft)
02.06.2013 06:22 6,2 C 5,1 C 94 % 1023,2 hPa 0,0 l/m 0 min 0 min 0,0 UV-I 28 W/m 0,0 km/h (0 Bft)
02.06.2013 06:24 6,2 C 5,7 C 94 % 1023,2 hPa 0,0 l/m 0 min 0 min 0,0 UV-I 30 W/m 0,0 km/h (0 Bft)
02.06.2013 06:26 6,2 C 5,7 C 94 % 1023,3 hPa 0,0 l/m 0 min 0 min 0,0 UV-I 33 W/m 0,0 km/h (0 Bft)
02.06.2013 06:28 6,2 C 5,7 C 94 % 1023,3 hPa 0,0 l/m 0 min 0 min 0,0 UV-I 32 W/m 0,0 km/h (0 Bft)
02.06.2013 06:30 6,2 C 5,7 C 95 % 1023,3 hPa 0,0 l/m 0 min 0 min 0,0 UV-I 32 W/m 0,0 km/h (0 Bft)
02.06.2013 06:32 6,2 C 5,7 C 95 % 1023,3 hPa 0,0 l/m 0 min 0 min 0,0 UV-I 33 W/m 0,0 km/h (0 Bft)
02.06.2013 06:34 6,2 C 5,7 C 95 % 1023,3 hPa 0,0 l/m 0 min 0 min 0,0 UV-I 37 W/m 0,0 km/h (0 Bft)
02.06.2013 06:36 6,2 C 5,7 C 95 % 1023,3 hPa 0,0 l/m 0 min 0 min 0,0 UV-I 37 W/m 0,0 km/h (0 Bft)
02.06.2013 06:38 6,2 C 5,7 C 95 % 1023,3 hPa 0,0 l/m 0 min 0 min 0,0 UV-I 37 W/m 0,0 km/h (0 Bft)
02.06.2013 06:40 6,3 C 5,7 C 95 % 1023,4 hPa 0,0 l/m 0 min 0 min 0,0 UV-I 37 W/m 0,0 km/h (0 Bft)
02.06.2013 06:42 6,3 C 5,7 C 95 % 1023,4 hPa 0,0 l/m 0 min 0 min 0,0 UV-I 37 W/m 0,0 km/h (0 Bft)
02.06.2013 06:44 6,3 C 5,7 C 95 % 1023,4 hPa 0,0 l/m 0 min 0 min 0,0 UV-I 39 W/m 0,0 km/h (0 Bft)
02.06.2013 06:46 6,3 C 5,7 C 95 % 1023,4 hPa 0,0 l/m 0 min 0 min 0,0 UV-I 42 W/m 7,7 km/h (2 Bft)
02.06.2013 06:48 6,3 C 5,7 C 95 % 1023,3 hPa 0,0 l/m 0 min 0 min 0,0 UV-I 39 W/m 0,0 km/h (0 Bft)
02.06.2013 06:50 6,4 C 6,2 C 95 % 1023,3 hPa 0,0 l/m 0 min 0 min 0,0 UV-I 42 W/m 0,0 km/h (0 Bft)
02.06.2013 06:52 6,4 C 6,2 C 95 % 1023,4 hPa 0,0 l/m 0 min 0 min 0,0 UV-I 44 W/m 0,0 km/h (0 Bft)
02.06.2013 06:54 6,4 C 6,2 C 95 % 1023,4 hPa 0,0 l/m 0 min 0 min 0,0 UV-I 56 W/m 0,0 km/h (0 Bft)
02.06.2013 06:56 6,4 C 6,2 C 95 % 1023,5 hPa 0,0 l/m 0 min 0 min 0,0 UV-I 60 W/m 0,0 km/h (0 Bft)
02.06.2013 06:58 6,5 C 6,2 C 95 % 1023,4 hPa 0,0 l/m 0 min 0 min 0,0 UV-I 54 W/m 0,0 km/h (0 Bft)
02.06.2013 07:00 6,6 C 6,2 C 96 % 1023,4 hPa 0,0 l/m 0 min 0 min 0,0 UV-I 51 W/m 0,0 km/h (0 Bft)
02.06.2013 07:02 6,6 C 6,2 C 96 % 1023,4 hPa 0,0 l/m 0 min 0 min 0,0 UV-I 72 W/m 0,0 km/h (0 Bft)
02.06.2013 07:04 6,6 C 6,2 C 96 % 1023,4 hPa 0,0 l/m 0 min 0 min 0,0 UV-I 42 W/m 0,0 km/h (0 Bft)
02.06.2013 07:06 6,6 C 6,2 C 96 % 1023,4 hPa 0,0 l/m 0 min 0 min 0,0 UV-I 46 W/m 0,0 km/h (0 Bft)
02.06.2013 07:08 6,6 C 6,2 C 96 % 1023,4 hPa 0,0 l/m 0 min 0 min 0,0 UV-I 58 W/m 0,0 km/h (0 Bft)
02.06.2013 07:10 6,7 C 6,2 C 96 % 1023,4 hPa 0,0 l/m 0 min 0 min 0,0 UV-I 67 W/m 0,0 km/h (0 Bft)
02.06.2013 07:12 6,7 C 6,2 C 96 % 1023,4 hPa 0,0 l/m 0 min 0 min 0,0 UV-I 65 W/m 0,0 km/h (0 Bft)
02.06.2013 07:14 6,7 C 6,2 C 96 % 1023,4 hPa 0,0 l/m 0 min 0 min 0,0 UV-I 77 W/m 0,0 km/h (0 Bft)
02.06.2013 07:16 6,7 C 6,8 C 96 % 1023,4 hPa 0,0 l/m 0 min 0 min 0,0 UV-I 72 W/m 0,0 km/h (0 Bft)
02.06.2013 07:18 6,8 C 6,8 C 96 % 1023,4 hPa 0,0 l/m 0 min 0 min 0,0 UV-I 77 W/m 7,7 km/h (2 Bft)
02.06.2013 07:20 6,8 C 6,8 C 96 % 1023,4 hPa 0,0 l/m 0 min 0 min 0,0 UV-I 98 W/m 5,1 km/h (1 Bft)
02.06.2013 07:22 6,9 C 6,8 C 96 % 1023,4 hPa 0,0 l/m 0 min 0 min 0,0 UV-I 58 W/m 7,7 km/h (2 Bft)
02.06.2013 07:24 6,9 C 6,8 C 96 % 1023,4 hPa 0,0 l/m 0 min 0 min 0,0 UV-I 67 W/m 10,3 km/h (2 Bft)
02.06.2013 07:26 7,1 C 6,8 C 96 % 1023,5 hPa 0,0 l/m 0 min 0 min 0,0 UV-I 90 W/m 10,3 km/h (2 Bft)
02.06.2013 07:28 7,1 C 7,3 C 96 % 1023,4 hPa 0,0 l/m 0 min 0 min 0,0 UV-I 107 W/m 12,9 km/h (3 Bft)
02.06.2013 07:30 7,2 C 7,3 C 96 % 1023,5 hPa 0,0 l/m 0 min 0 min 0,0 UV-I 83 W/m 5,1 km/h (1 Bft)
02.06.2013 07:32 7,2 C 7,3 C 96 % 1023,5 hPa 0,0 l/m 0 min 0 min 0,0 UV-I 130 W/m 10,3 km/h (2 Bft)
02.06.2013 07:34 7,2 C 7,3 C 96 % 1023,5 hPa 0,0 l/m 0 min 0 min 0,0 UV-I 97 W/m 10,3 km/h (2 Bft)
02.06.2013 07:36 7,3 C 7,3 C 96 % 1023,5 hPa 0,0 l/m 0 min 0 min 0,0 UV-I 91 W/m 0,0 km/h (0 Bft)
02.06.2013 07:38 7,3 C 7,3 C 96 % 1023,4 hPa 0,0 l/m 0 min 0 min 0,0 UV-I 111 W/m 5,1 km/h (1 Bft)
02.06.2013 07:40 7,3 C 7,9 C 96 % 1023,5 hPa 0,0 l/m 0 min 0 min 0,0 UV-I 155 W/m 2,6 km/h (1 Bft)
02.06.2013 07:42 7,4 C 7,9 C 96 % 1023,5 hPa 0,0 l/m 0 min 0 min 0,0 UV-I 107 W/m 10,3 km/h (2 Bft)
02.06.2013 07:44 7,4 C 7,9 C 96 % 1023,5 hPa 0,0 l/m 0 min 0 min 0,0 UV-I 114 W/m 18,0 km/h (3 Bft)
02.06.2013 07:46 7,5 C 7,9 C 97 % 1023,6 hPa 0,0 l/m 2 min 0 min 0,0 UV-I 181 W/m 7,7 km/h (2 Bft)
02.06.2013 07:48 7,6 C 8,4 C 97 % 1023,6 hPa 0,0 l/m 0 min 0 min 0,0 UV-I 102 W/m 7,7 km/h (2 Bft)
02.06.2013 07:50 7,7 C 8,4 C 97 % 1023,6 hPa 0,0 l/m 0 min 0 min 0,0 UV-I 156 W/m 10,3 km/h (2 Bft)
02.06.2013 07:52 7,7 C 7,9 C 97 % 1023,5 hPa 0,0 l/m 0 min 0 min 0,0 UV-I 160 W/m 20,6 km/h (4 Bft)
02.06.2013 07:54 7,7 C 8,4 C 97 % 1023,6 hPa 0,0 l/m 0 min 0 min 0,0 UV-I 88 W/m 7,7 km/h (2 Bft)
02.06.2013 07:56 7,8 C 8,4 C 97 % 1023,6 hPa 0,0 l/m 0 min 0 min 0,0 UV-I 120 W/m 10,3 km/h (2 Bft)
02.06.2013 07:58 7,8 C 8,4 C 97 % 1023,6 hPa 0,0 l/m 0 min 0 min 0,0 UV-I 93 W/m 12,9 km/h (3 Bft)
02.06.2013 08:00 7,9 C 8,4 C 97 % 1023,6 hPa 0,0 l/m 0 min 0 min 0,0 UV-I 97 W/m 12,9 km/h (3 Bft)
02.06.2013 08:02 7,9 C 8,4 C 97 % 1023,6 hPa 0,0 l/m 0 min 0 min 0,0 UV-I 146 W/m 10,3 km/h (2 Bft)
02.06.2013 08:04 7,9 C 8,4 C 97 % 1023,7 hPa 0,0 l/m 0 min 0 min 0,0 UV-I 97 W/m 12,9 km/h (3 Bft)
02.06.2013 08:06 8,0 C 8,4 C 97 % 1023,8 hPa 0,0 l/m 0 min 0 min 0,0 UV-I 90 W/m 7,7 km/h (2 Bft)
02.06.2013 08:08 8,0 C 8,4 C 97 % 1023,7 hPa 0,0 l/m 0 min 0 min 0,0 UV-I 95 W/m 18,0 km/h (3 Bft)
02.06.2013 08:10 8,0 C 8,4 C 97 % 1023,7 hPa 0,0 l/m 0 min 0 min 0,0 UV-I 70 W/m 20,6 km/h (4 Bft)
02.06.2013 08:12 8,1 C 8,4 C 97 % 1023,7 hPa 0,0 l/m 0 min 0 min 0,0 UV-I 155 W/m 10,3 km/h (2 Bft)
02.06.2013 08:14 8,1 C 8,4 C 96 % 1023,7 hPa 0,0 l/m 0 min 0 min 0,0 UV-I 118 W/m 12,9 km/h (3 Bft)
02.06.2013 08:16 8,1 C 8,4 C 96 % 1023,7 hPa 0,0 l/m 0 min 0 min 0,0 UV-I 100 W/m 10,3 km/h (2 Bft)
02.06.2013 08:18 8,1 C 8,4 C 96 % 1023,8 hPa 0,0 l/m 0 min 0 min 0,0 UV-I 102 W/m 5,1 km/h (1 Bft)
02.06.2013 08:20 8,2 C 8,4 C 96 % 1023,8 hPa 0,0 l/m 0 min 0 min 0,0 UV-I 93 W/m 10,3 km/h (2 Bft)
02.06.2013 08:22 8,2 C 8,4 C 96 % 1023,8 hPa 0,0 l/m 0 min 0 min 0,0 UV-I 121 W/m 10,3 km/h (2 Bft)
02.06.2013 08:24 8,2 C 9,0 C 96 % 1023,8 hPa 0,0 l/m 0 min 0 min 0,0 UV-I 116 W/m 7,7 km/h (2 Bft)
02.06.2013 08:26 8,3 C 9,0 C 96 % 1023,9 hPa 0,0 l/m 0 min 0 min 0,0 UV-I 132 W/m 10,3 km/h (2 Bft)
02.06.2013 08:28 8,3 C 9,0 C 96 % 1023,8 hPa 0,0 l/m 0 min 0 min 0,0 UV-I 213 W/m 12,9 km/h (3 Bft)
02.06.2013 08:30 8,3 C 9,0 C 96 % 1023,8 hPa 0,0 l/m 0 min 0 min 0,0 UV-I 169 W/m 18,0 km/h (3 Bft)
02.06.2013 08:32 8,4 C 9,0 C 96 % 1023,8 hPa 0,0 l/m 0 min 0 min 0,0 UV-I 183 W/m 10,3 km/h (2 Bft)
02.06.2013 08:34 8,5 C 9,0 C 96 % 1023,8 hPa 0,0 l/m 0 min 0 min 0,0 UV-I 149 W/m 10,3 km/h (2 Bft)
02.06.2013 08:36 8,5 C 9,0 C 96 % 1023,7 hPa 0,0 l/m 0 min 0 min 0,0 UV-I 120 W/m 7,7 km/h (2 Bft)
02.06.2013 08:38 8,6 C 9,0 C 96 % 1023,8 hPa 0,0 l/m 0 min 0 min 0,0 UV-I 132 W/m 15,4 km/h (3 Bft)
02.06.2013 08:40 8,6 C 9,6 C 96 % 1023,8 hPa 0,0 l/m 0 min 0 min 0,0 UV-I 197 W/m 15,4 km/h (3 Bft)
02.06.2013 08:42 8,7 C 9,6 C 95 % 1023,8 hPa 0,0 l/m 2 min 0 min 0,0 UV-I 262 W/m 23,2 km/h (4 Bft)
02.06.2013 08:44 8,7 C 9,0 C 95 % 1023,8 hPa 0,0 l/m 0 min 0 min 0,0 UV-I 214 W/m 23,2 km/h (4 Bft)
02.06.2013 08:46 8,7 C 9,6 C 95 % 1023,8 hPa 0,0 l/m 2 min 0 min 0,7 UV-I 267 W/m 18,0 km/h (3 Bft)
02.06.2013 08:48 8,8 C 9,6 C 95 % 1023,8 hPa 0,0 l/m 2 min 0 min 0,8 UV-I 267 W/m 18,0 km/h (3 Bft)
02.06.2013 08:50 8,9 C 9,6 C 94 % 1023,8 hPa 0,0 l/m 2 min 0 min 0,7 UV-I 272 W/m 18,0 km/h (3 Bft)
02.06.2013 08:52 9,0 C 10,1 C 94 % 1023,9 hPa 0,0 l/m 2 min 0 min 0,7 UV-I 431 W/m 23,2 km/h (4 Bft)
02.06.2013 08:54 9,1 C 10,1 C 93 % 1023,8 hPa 0,0 l/m 2 min 0 min 0,6 UV-I 431 W/m 15,4 km/h (3 Bft)
02.06.2013 08:56 9,2 C 10,1 C 93 % 1023,9 hPa 0,0 l/m 2 min 0 min 0,8 UV-I 431 W/m 15,4 km/h (3 Bft)
02.06.2013 08:58 9,3 C 10,1 C 92 % 1023,9 hPa 0,0 l/m 0 min 0 min 0,0 UV-I 221 W/m 18,0 km/h (3 Bft)
02.06.2013 09:00 9,4 C 10,7 C 92 % 1023,9 hPa 0,0 l/m 0 min 0 min 0,7 UV-I 221 W/m 12,9 km/h (3 Bft)
02.06.2013 09:02 9,6 C 10,7 C 91 % 1023,9 hPa 0,0 l/m 2 min 0 min 0,9 UV-I 570 W/m 7,7 km/h (2 Bft)
02.06.2013 09:04 9,7 C 11,2 C 91 % 1023,9 hPa 0,0 l/m 2 min 0 min 0,9 UV-I 591 W/m 12,9 km/h (3 Bft)
02.06.2013 09:06 9,8 C 11,2 C 90 % 1023,9 hPa 0,0 l/m 2 min 0 min 1,0 UV-I 552 W/m 20,6 km/h (4 Bft)
02.06.2013 09:08 10,0 C 11,2 C 90 % 1023,9 hPa 0,0 l/m 2 min 0 min 0,0 UV-I 536 W/m 12,9 km/h (3 Bft)
02.06.2013 09:10 10,1 C 10,7 C 89 % 1023,9 hPa 0,0 l/m 2 min 0 min 0,0 UV-I 536 W/m 18,0 km/h (3 Bft)
02.06.2013 09:12 10,1 C 10,1 C 87 % 1023,9 hPa 0,0 l/m 0 min 0 min 0,5 UV-I 146 W/m 18,0 km/h (3 Bft)
02.06.2013 09:14 10,1 C 9,6 C 86 % 1023,9 hPa 0,0 l/m 0 min 0 min 0,8 UV-I 113 W/m 12,9 km/h (3 Bft)
02.06.2013 09:16 10,2 C 9,6 C 85 % 1023,9 hPa 0,0 l/m 2 min 0 min 1,2 UV-I 520 W/m 20,6 km/h (4 Bft)
02.06.2013 09:18 10,2 C 9,6 C 85 % 1023,9 hPa 0,0 l/m 2 min 0 min 1,2 UV-I 541 W/m 12,9 km/h (3 Bft)
02.06.2013 09:20 10,3 C 10,1 C 85 % 1024,0 hPa 0,0 l/m 2 min 0 min 1,2 UV-I 548 W/m 18,0 km/h (3 Bft)
02.06.2013 09:22 10,3 C 10,7 C 84 % 1024,0 hPa 0,0 l/m 2 min 0 min 1,3 UV-I 557 W/m 15,4 km/h (3 Bft)
02.06.2013 09:24 10,4 C 10,7 C 84 % 1024,1 hPa 0,0 l/m 2 min 0 min 1,3 UV-I 483 W/m 23,2 km/h (4 Bft)
02.06.2013 09:26 10,5 C 11,2 C 84 % 1024,1 hPa 0,0 l/m 2 min 0 min 1,3 UV-I 636 W/m 20,6 km/h (4 Bft)
02.06.2013 09:28 10,6 C 11,2 C 84 % 1024,0 hPa 0,0 l/m 0 min 0 min 0,0 UV-I 156 W/m 15,4 km/h (3 Bft)
02.06.2013 09:30 10,7 C 10,7 C 83 % 1024,1 hPa 0,0 l/m 0 min 0 min 0,0 UV-I 95 W/m 12,9 km/h (3 Bft)
02.06.2013 09:32 10,7 C 10,1 C 82 % 1024,1 hPa 0,0 l/m 0 min 0 min 0,6 UV-I 142 W/m 18,0 km/h (3 Bft)
02.06.2013 09:34 10,7 C 10,1 C 81 % 1024,1 hPa 0,0 l/m 0 min 0 min 1,2 UV-I 142 W/m 20,6 km/h (4 Bft)
02.06.2013 09:36 10,6 C 9,6 C 80 % 1024,1 hPa 0,0 l/m 0 min 0 min 0,6 UV-I 134 W/m 23,2 km/h (4 Bft)
02.06.2013 09:38 10,6 C 10,1 C 80 % 1024,0 hPa 0,0 l/m 2 min 0 min 1,6 UV-I 605 W/m 18,0 km/h (3 Bft)
02.06.2013 09:40 10,6 C 10,7 C 80 % 1024,0 hPa 0,0 l/m 2 min 0 min 1,6 UV-I 582 W/m 15,4 km/h (3 Bft)
02.06.2013 09:42 10,7 C 10,7 C 81 % 1024,1 hPa 0,0 l/m 2 min 0 min 1,6 UV-I 615 W/m 20,6 km/h (4 Bft)
02.06.2013 09:44 10,7 C 11,2 C 80 % 1024,1 hPa 0,0 l/m 2 min 0 min 1,7 UV-I 617 W/m 20,6 km/h (4 Bft)
02.06.2013 09:46 10,8 C 11,8 C 80 % 1024,0 hPa 0,0 l/m 2 min 0 min 1,7 UV-I 659 W/m 15,4 km/h (3 Bft)
02.06.2013 09:48 10,9 C 12,3 C 80 % 1024,0 hPa 0,0 l/m 2 min 0 min 1,7 UV-I 650 W/m 15,4 km/h (3 Bft)
02.06.2013 09:50 11,1 C 12,9 C 80 % 1024,0 hPa 0,0 l/m 2 min 0 min 1,8 UV-I 664 W/m 18,0 km/h (3 Bft)
02.06.2013 09:52 11,2 C 14,0 C 79 % 1024,1 hPa 0,0 l/m 2 min 0 min 1,4 UV-I 717 W/m 15,4 km/h (3 Bft)
02.06.2013 09:54 11,3 C 14,0 C 80 % 1024,1 hPa 0,0 l/m 2 min 0 min 0,7 UV-I 717 W/m 15,4 km/h (3 Bft)
02.06.2013 09:56 11,4 C 14,6 C 79 % 1024,0 hPa 0,0 l/m 2 min 0 min 1,9 UV-I 631 W/m 12,9 km/h (3 Bft)
02.06.2013 09:58 11,6 C 15,7 C 77 % 1024,0 hPa 0,0 l/m 2 min 0 min 2,0 UV-I 631 W/m 20,6 km/h (4 Bft)
02.06.2013 10:00 11,6 C 17,3 C 77 % 1024,0 hPa 0,0 l/m 2 min 0 min 2,0 UV-I 649 W/m 15,4 km/h (3 Bft)
02.06.2013 10:02 11,7 C 18,4 C 77 % 1023,9 hPa 0,0 l/m 2 min 0 min 2,0 UV-I 647 W/m 18,0 km/h (3 Bft)
02.06.2013 10:04 11,8 C 18,4 C 75 % 1024,0 hPa 0,0 l/m 2 min 0 min 2,0 UV-I 657 W/m 28,3 km/h (4 Bft)
02.06.2013 10:06 11,9 C 19,6 C 75 % 1023,9 hPa 0,0 l/m 2 min 0 min 2,1 UV-I 700 W/m 15,4 km/h (3 Bft)
02.06.2013 10:08 12,1 C 20,1 C 75 % 1023,9 hPa 0,0 l/m 2 min 0 min 2,3 UV-I 751 W/m 15,4 km/h (3 Bft)
02.06.2013 10:10 12,2 C 19,6 C 76 % 1023,9 hPa 0,0 l/m 2 min 0 min 2,2 UV-I 751 W/m 10,3 km/h (2 Bft)
02.06.2013 10:12 12,3 C 17,3 C 75 % 1023,9 hPa 0,0 l/m 0 min 0 min 1,0 UV-I 200 W/m 12,9 km/h (3 Bft)
02.06.2013 10:14 12,4 C 15,7 C 75 % 1023,9 hPa 0,0 l/m 0 min 0 min 1,0 UV-I 190 W/m 15,4 km/h (3 Bft)
02.06.2013 10:16 12,4 C 14,0 C 73 % 1023,9 hPa 0,0 l/m 0 min 0 min 0,8 UV-I 190 W/m 15,4 km/h (3 Bft)
02.06.2013 10:18 12,4 C 15,1 C 72 % 1023,9 hPa 0,0 l/m 0 min 0 min 2,3 UV-I 139 W/m 15,4 km/h (3 Bft)
02.06.2013 10:20 12,4 C 15,1 C 72 % 1023,9 hPa 0,0 l/m 0 min 0 min 1,0 UV-I 237 W/m 12,9 km/h (3 Bft)
02.06.2013 10:22 12,4 C 16,2 C 73 % 1023,8 hPa 0,0 l/m 0 min 0 min 2,5 UV-I 237 W/m 10,3 km/h (2 Bft)
02.06.2013 10:24 12,5 C 16,2 C 73 % 1023,8 hPa 0,0 l/m 2 min 0 min 1,1 UV-I 738 W/m 10,3 km/h (2 Bft)
02.06.2013 10:26 12,5 C 15,1 C 72 % 1023,8 hPa 0,0 l/m 0 min 0 min 1,1 UV-I 211 W/m 20,6 km/h (4 Bft)
02.06.2013 10:28 12,5 C 16,2 C 72 % 1023,8 hPa 0,0 l/m 2 min 0 min 2,5 UV-I 701 W/m 12,9 km/h (3 Bft)
02.06.2013 10:30 12,6 C 16,8 C 71 % 1023,7 hPa 0,0 l/m 2 min 0 min 1,1 UV-I 714 W/m 12,9 km/h (3 Bft)
02.06.2013 10:32 12,6 C 18,4 C 71 % 1023,8 hPa 0,0 l/m 2 min 0 min 1,5 UV-I 724 W/m 18,0 km/h (3 Bft)
02.06.2013 10:34 12,6 C 17,9 C 71 % 1023,8 hPa 0,0 l/m 2 min 0 min 1,6 UV-I 724 W/m 18,0 km/h (3 Bft)
02.06.2013 10:36 12,7 C 17,3 C 70 % 1023,8 hPa 0,0 l/m 2 min 0 min 2,7 UV-I 823 W/m 28,3 km/h (4 Bft)
02.06.2013 10:38 12,7 C 17,9 C 68 % 1023,9 hPa 0,0 l/m 2 min 0 min 2,7 UV-I 728 W/m 25,7 km/h (4 Bft)
02.06.2013 10:40 12,7 C 17,9 C 65 % 1023,8 hPa 0,0 l/m 2 min 0 min 2,7 UV-I 708 W/m 23,2 km/h (4 Bft)
02.06.2013 10:42 12,7 C 18,4 C 65 % 1023,8 hPa 0,0 l/m 2 min 0 min 2,8 UV-I 700 W/m 20,6 km/h (4 Bft)
02.06.2013 10:44 12,7 C 18,4 C 65 % 1023,8 hPa 0,0 l/m 2 min 0 min 2,8 UV-I 698 W/m 36,0 km/h (5 Bft)
02.06.2013 10:46 12,8 C 17,9 C 65 % 1023,7 hPa 0,0 l/m 2 min 0 min 2,8 UV-I 701 W/m 25,7 km/h (4 Bft)
02.06.2013 10:48 12,8 C 19,6 C 65 % 1023,7 hPa 0,0 l/m 2 min 0 min 2,9 UV-I 708 W/m 25,7 km/h (4 Bft)
02.06.2013 10:50 12,9 C 19,6 C 65 % 1023,8 hPa 0,0 l/m 2 min 0 min 2,9 UV-I 712 W/m 23,2 km/h (4 Bft)
02.06.2013 10:52 13,1 C 20,7 C 66 % 1023,8 hPa 0,0 l/m 2 min 0 min 3,0 UV-I 714 W/m 20,6 km/h (4 Bft)
02.06.2013 10:54 13,2 C 20,7 C 65 % 1023,9 hPa 0,0 l/m 2 min 0 min 3,0 UV-I 717 W/m 18,0 km/h (3 Bft)
02.06.2013 10:56 13,3 C 20,7 C 64 % 1023,8 hPa 0,0 l/m 2 min 0 min 3,0 UV-I 721 W/m 25,7 km/h (4 Bft)
02.06.2013 10:58 13,4 C 19,6 C 64 % 1023,8 hPa 0,0 l/m 2 min 0 min 3,1 UV-I 724 W/m 20,6 km/h (4 Bft)
02.06.2013 11:00 13,4 C 18,4 C 64 % 1023,7 hPa 0,0 l/m 2 min 0 min 3,1 UV-I 729 W/m 30,9 km/h (5 Bft)
02.06.2013 11:02 13,5 C 19,0 C 63 % 1023,8 hPa 0,0 l/m 2 min 0 min 3,1 UV-I 731 W/m 18,0 km/h (3 Bft)
02.06.2013 11:04 13,5 C 19,6 C 62 % 1023,8 hPa 0,0 l/m 2 min 0 min 3,2 UV-I 742 W/m 20,6 km/h (4 Bft)
02.06.2013 11:06 13,6 C 20,7 C 63 % 1023,7 hPa 0,0 l/m 2 min 0 min 3,3 UV-I 752 W/m 10,3 km/h (2 Bft)
02.06.2013 11:08 13,6 C 20,1 C 63 % 1023,8 hPa 0,0 l/m 2 min 0 min 3,3 UV-I 745 W/m 20,6 km/h (4 Bft)
02.06.2013 11:10 13,7 C 19,6 C 62 % 1023,8 hPa 0,0 l/m 2 min 0 min 3,3 UV-I 744 W/m 23,2 km/h (4 Bft)
02.06.2013 11:12 13,8 C 19,0 C 61 % 1023,8 hPa 0,0 l/m 2 min 0 min 3,3 UV-I 747 W/m 28,3 km/h (4 Bft)
02.06.2013 11:14 13,8 C 19,0 C 62 % 1023,8 hPa 0,0 l/m 2 min 0 min 3,4 UV-I 754 W/m 33,5 km/h (5 Bft)
02.06.2013 11:16 13,9 C 18,4 C 61 % 1023,9 hPa 0,0 l/m 2 min 0 min 3,4 UV-I 752 W/m 28,3 km/h (4 Bft)
02.06.2013 11:18 13,9 C 18,4 C 60 % 1023,9 hPa 0,0 l/m 2 min 0 min 3,5 UV-I 756 W/m 25,7 km/h (4 Bft)
02.06.2013 11:20 13,9 C 18,4 C 60 % 1023,9 hPa 0,0 l/m 2 min 0 min 3,5 UV-I 759 W/m 28,3 km/h (4 Bft)
02.06.2013 11:22 13,9 C 19,6 C 61 % 1023,8 hPa 0,0 l/m 2 min 0 min 3,5 UV-I 763 W/m 23,2 km/h (4 Bft)
02.06.2013 11:24 14,0 C 19,6 C 60 % 1023,9 hPa 0,0 l/m 2 min 0 min 3,6 UV-I 773 W/m 28,3 km/h (4 Bft)
02.06.2013 11:26 14,0 C 20,1 C 61 % 1023,8 hPa 0,0 l/m 2 min 0 min 3,6 UV-I 770 W/m 15,4 km/h (3 Bft)
02.06.2013 11:28 14,0 C 20,1 C 61 % 1023,9 hPa 0,0 l/m 2 min 0 min 3,6 UV-I 773 W/m 20,6 km/h (4 Bft)
02.06.2013 11:30 14,0 C 19,6 C 60 % 1023,9 hPa 0,0 l/m 2 min 0 min 3,4 UV-I 800 W/m 25,7 km/h (4 Bft)
02.06.2013 11:32 14,0 C 19,0 C 59 % 1023,9 hPa 0,0 l/m 2 min 0 min 2,9 UV-I 795 W/m 28,3 km/h (4 Bft)
02.06.2013 11:34 14,1 C 19,6 C 60 % 1024,0 hPa 0,0 l/m 2 min 0 min 3,8 UV-I 786 W/m 28,3 km/h (4 Bft)
02.06.2013 11:36 14,1 C 20,1 C 60 % 1023,9 hPa 0,0 l/m 2 min 0 min 3,8 UV-I 789 W/m 20,6 km/h (4 Bft)
02.06.2013 11:38 14,2 C 20,7 C 62 % 1023,8 hPa 0,0 l/m 2 min 0 min 3,8 UV-I 795 W/m 15,4 km/h (3 Bft)
02.06.2013 11:40 14,3 C 20,1 C 62 % 1023,9 hPa 0,0 l/m 2 min 0 min 3,9 UV-I 795 W/m 23,2 km/h (4 Bft)
02.06.2013 11:42 14,4 C 19,6 C 61 % 1023,9 hPa 0,0 l/m 2 min 0 min 3,9 UV-I 796 W/m 18,0 km/h (3 Bft)
02.06.2013 11:44 14,5 C 19,0 C 61 % 1023,9 hPa 0,0 l/m 2 min 0 min 3,9 UV-I 800 W/m 15,4 km/h (3 Bft)
02.06.2013 11:46 14,6 C 17,9 C 61 % 1023,9 hPa 0,0 l/m 2 min 0 min 2,1 UV-I 802 W/m 18,0 km/h (3 Bft)
02.06.2013 11:48 14,7 C 17,9 C 61 % 1023,9 hPa 0,0 l/m 2 min 0 min 4,0 UV-I 809 W/m 18,0 km/h (3 Bft)
02.06.2013 11:50 14,8 C 18,4 C 58 % 1023,9 hPa 0,0 l/m 2 min 0 min 4,0 UV-I 809 W/m 30,9 km/h (5 Bft)
02.06.2013 11:52 14,8 C 18,4 C 58 % 1024,1 hPa 0,0 l/m 2 min 0 min 4,1 UV-I 816 W/m 25,7 km/h (4 Bft)
02.06.2013 11:54 14,8 C 19,6 C 57 % 1024,0 hPa 0,0 l/m 2 min 0 min 4,1 UV-I 784 W/m 23,2 km/h (4 Bft)
02.06.2013 11:56 14,7 C 20,1 C 57 % 1024,0 hPa 0,0 l/m 2 min 0 min 4,1 UV-I 817 W/m 28,3 km/h (4 Bft)
02.06.2013 11:58 14,7 C 21,2 C 60 % 1024,0 hPa 0,0 l/m 2 min 0 min 4,1 UV-I 814 W/m 25,7 km/h (4 Bft)
02.06.2013 12:00 14,7 C 21,2 C 58 % 1024,1 hPa 0,0 l/m 2 min 0 min 4,2 UV-I 821 W/m 25,7 km/h (4 Bft)
02.06.2013 12:02 14,8 C 22,3 C 62 % 1024,0 hPa 0,0 l/m 2 min 0 min 4,2 UV-I 823 W/m 25,7 km/h (4 Bft)
02.06.2013 12:04 14,8 C 21,8 C 58 % 1024,1 hPa 0,0 l/m 2 min 0 min 4,2 UV-I 823 W/m 23,2 km/h (4 Bft)
02.06.2013 12:06 14,7 C 21,2 C 59 % 1024,0 hPa 0,0 l/m 2 min 0 min 4,3 UV-I 821 W/m 25,7 km/h (4 Bft)
02.06.2013 12:08 14,7 C 21,2 C 58 % 1024,1 hPa 0,0 l/m 2 min 0 min 4,3 UV-I 826 W/m 23,2 km/h (4 Bft)
02.06.2013 12:10 14,7 C 21,2 C 57 % 1024,1 hPa 0,0 l/m 2 min 0 min 4,3 UV-I 828 W/m 23,2 km/h (4 Bft)
02.06.2013 12:12 14,7 C 21,8 C 58 % 1024,0 hPa 0,0 l/m 2 min 0 min 4,3 UV-I 831 W/m 20,6 km/h (4 Bft)
02.06.2013 12:14 14,9 C 22,3 C 59 % 1024,0 hPa 0,0 l/m 2 min 0 min 4,4 UV-I 833 W/m 33,5 km/h (5 Bft)
02.06.2013 12:16 14,9 C 22,3 C 59 % 1024,1 hPa 0,0 l/m 2 min 0 min 4,4 UV-I 833 W/m 23,2 km/h (4 Bft)
02.06.2013 12:18 14,9 C 21,8 C 60 % 1024,1 hPa 0,0 l/m 2 min 0 min 4,4 UV-I 831 W/m 20,6 km/h (4 Bft)
02.06.2013 12:20 14,8 C 22,3 C 59 % 1024,2 hPa 0,0 l/m 2 min 0 min 4,4 UV-I 837 W/m 18,0 km/h (3 Bft)
02.06.2013 12:22 14,8 C 22,9 C 59 % 1024,1 hPa 0,0 l/m 2 min 0 min 4,5 UV-I 842 W/m 18,0 km/h (3 Bft)
02.06.2013 12:24 14,9 C 21,8 C 59 % 1024,2 hPa 0,0 l/m 2 min 0 min 4,5 UV-I 851 W/m 28,3 km/h (4 Bft)
02.06.2013 12:26 14,8 C 21,8 C 59 % 1024,1 hPa 0,0 l/m 2 min 0 min 4,6 UV-I 851 W/m 12,9 km/h (3 Bft)
02.06.2013 12:28 14,9 C 21,2 C 60 % 1024,1 hPa 0,0 l/m 2 min 0 min 4,6 UV-I 851 W/m 23,2 km/h (4 Bft)
02.06.2013 12:30 15,0 C 21,8 C 59 % 1024,1 hPa 0,0 l/m 2 min 0 min 4,6 UV-I 877 W/m 18,0 km/h (3 Bft)
02.06.2013 12:32 15,2 C 22,9 C 60 % 1024,1 hPa 0,0 l/m 2 min 0 min 2,5 UV-I 879 W/m 18,0 km/h (3 Bft)
02.06.2013 12:34 15,3 C 22,9 C 58 % 1024,1 hPa 0,0 l/m 2 min 0 min 4,6 UV-I 867 W/m 18,0 km/h (3 Bft)
02.06.2013 12:36 15,5 C 23,4 C 58 % 1024,1 hPa 0,0 l/m 2 min 0 min 4,6 UV-I 854 W/m 12,9 km/h (3 Bft)
02.06.2013 12:38 15,8 C 23,4 C 57 % 1024,2 hPa 0,0 l/m 2 min 0 min 4,7 UV-I 861 W/m 25,7 km/h (4 Bft)
02.06.2013 12:40 15,8 C 23,4 C 56 % 1024,2 hPa 0,0 l/m 2 min 0 min 4,7 UV-I 858 W/m 18,0 km/h (3 Bft)
02.06.2013 12:42 15,7 C 23,4 C 55 % 1024,2 hPa 0,0 l/m 2 min 0 min 4,7 UV-I 861 W/m 12,9 km/h (3 Bft)
02.06.2013 12:44 15,6 C 22,9 C 56 % 1024,1 hPa 0,0 l/m 2 min 0 min 4,7 UV-I 854 W/m 18,0 km/h (3 Bft)
02.06.2013 12:46 15,7 C 24,0 C 59 % 1024,1 hPa 0,0 l/m 2 min 0 min 4,7 UV-I 860 W/m 18,0 km/h (3 Bft)
02.06.2013 12:48 15,8 C 22,9 C 55 % 1024,2 hPa 0,0 l/m 2 min 0 min 4,6 UV-I 865 W/m 23,2 km/h (4 Bft)
02.06.2013 12:50 15,7 C 22,9 C 55 % 1024,1 hPa 0,0 l/m 2 min 0 min 4,4 UV-I 881 W/m 20,6 km/h (4 Bft)
02.06.2013 12:52 15,8 C 21,8 C 54 % 1024,2 hPa 0,0 l/m 2 min 0 min 3,8 UV-I 854 W/m 38,6 km/h (5 Bft)
02.06.2013 12:54 15,8 C 20,7 C 51 % 1024,2 hPa 0,0 l/m 2 min 0 min 3,4 UV-I 851 W/m 33,5 km/h (5 Bft)
02.06.2013 12:56 15,7 C 20,7 C 51 % 1024,2 hPa 0,0 l/m 2 min 0 min 2,9 UV-I 754 W/m 25,7 km/h (4 Bft)
02.06.2013 12:58 15,7 C 21,8 C 54 % 1024,2 hPa 0,0 l/m 2 min 0 min 2,3 UV-I 789 W/m 18,0 km/h (3 Bft)
02.06.2013 13:00 15,7 C 21,8 C 52 % 1024,1 hPa 0,0 l/m 2 min 0 min 2,0 UV-I 837 W/m 20,6 km/h (4 Bft)
02.06.2013 13:02 15,7 C 22,3 C 53 % 1024,2 hPa 0,0 l/m 2 min 0 min 1,9 UV-I 751 W/m 18,0 km/h (3 Bft)
02.06.2013 13:04 15,6 C 21,8 C 52 % 1024,2 hPa 0,0 l/m 2 min 0 min 1,7 UV-I 766 W/m 18,0 km/h (3 Bft)
02.06.2013 13:06 15,8 C 22,3 C 52 % 1024,3 hPa 0,0 l/m 2 min 0 min 1,7 UV-I 798 W/m 20,6 km/h (4 Bft)
02.06.2013 13:08 16,0 C 22,9 C 53 % 1024,2 hPa 0,0 l/m 2 min 0 min 1,7 UV-I 879 W/m 20,6 km/h (4 Bft)
02.06.2013 13:10 16,1 C 22,9 C 52 % 1024,2 hPa 0,0 l/m 2 min 0 min 1,8 UV-I 872 W/m 28,3 km/h (4 Bft)
02.06.2013 13:12 16,3 C 23,4 C 52 % 1024,2 hPa 0,0 l/m 2 min 0 min 1,8 UV-I 896 W/m 15,4 km/h (3 Bft)
02.06.2013 13:14 16,3 C 22,9 C 51 % 1024,2 hPa 0,0 l/m 2 min 0 min 1,7 UV-I 837 W/m 20,6 km/h (4 Bft)
02.06.2013 13:16 16,3 C 22,9 C 52 % 1024,1 hPa 0,0 l/m 2 min 0 min 1,7 UV-I 807 W/m 20,6 km/h (4 Bft)
02.06.2013 13:18 16,3 C 22,3 C 51 % 1024,2 hPa 0,0 l/m 2 min 0 min 1,7 UV-I 795 W/m 23,2 km/h (4 Bft)
02.06.2013 13:20 16,2 C 21,8 C 52 % 1024,1 hPa 0,0 l/m 2 min 0 min 1,8 UV-I 847 W/m 18,0 km/h (3 Bft)
02.06.2013 13:22 16,3 C 21,8 C 53 % 1024,2 hPa 0,0 l/m 2 min 0 min 1,8 UV-I 847 W/m 23,2 km/h (4 Bft)
02.06.2013 13:24 16,3 C 22,3 C 51 % 1024,2 hPa 0,0 l/m 2 min 0 min 1,8 UV-I 842 W/m 20,6 km/h (4 Bft)
02.06.2013 13:26 16,2 C 22,9 C 51 % 1024,1 hPa 0,0 l/m 2 min 0 min 1,8 UV-I 824 W/m 20,6 km/h (4 Bft)
02.06.2013 13:28 16,3 C 22,3 C 52 % 1024,1 hPa 0,0 l/m 2 min 0 min 1,8 UV-I 840 W/m 23,2 km/h (4 Bft)
02.06.2013 13:30 16,4 C 22,9 C 53 % 1024,2 hPa 0,0 l/m 2 min 0 min 1,8 UV-I 853 W/m 23,2 km/h (4 Bft)
02.06.2013 13:32 16,4 C 21,8 C 50 % 1024,2 hPa 0,0 l/m 2 min 0 min 1,8 UV-I 842 W/m 23,2 km/h (4 Bft)
02.06.2013 13:34 16,4 C 21,8 C 50 % 1024,2 hPa 0,0 l/m 2 min 0 min 1,9 UV-I 809 W/m 25,7 km/h (4 Bft)
02.06.2013 13:36 16,3 C 21,8 C 52 % 1024,2 hPa 0,0 l/m 2 min 0 min 1,9 UV-I 809 W/m 18,0 km/h (3 Bft)
02.06.2013 13:38 16,5 C 22,3 C 54 % 1024,2 hPa 0,0 l/m 2 min 0 min 2,1 UV-I 861 W/m 12,9 km/h (3 Bft)
02.06.2013 13:40 16,7 C 20,7 C 52 % 1024,2 hPa 0,0 l/m 2 min 0 min 2,4 UV-I 875 W/m 23,2 km/h (4 Bft)
02.06.2013 13:42 16,7 C 19,0 C 50 % 1024,2 hPa 0,0 l/m 2 min 0 min 2,7 UV-I 838 W/m 23,2 km/h (4 Bft)
02.06.2013 13:44 16,8 C 19,0 C 52 % 1024,2 hPa 0,0 l/m 2 min 0 min 3,3 UV-I 856 W/m 15,4 km/h (3 Bft)
02.06.2013 13:46 16,9 C 18,4 C 50 % 1024,2 hPa 0,0 l/m 2 min 0 min 3,8 UV-I 867 W/m 25,7 km/h (4 Bft)
02.06.2013 13:48 16,9 C 17,9 C 50 % 1024,2 hPa 0,0 l/m 2 min 0 min 4,3 UV-I 874 W/m 20,6 km/h (4 Bft)
02.06.2013 13:50 16,8 C 17,9 C 51 % 1024,2 hPa 0,0 l/m 2 min 0 min 4,6 UV-I 875 W/m 23,2 km/h (4 Bft)
02.06.2013 13:52 16,9 C 17,9 C 50 % 1024,2 hPa 0,0 l/m 2 min 0 min 4,8 UV-I 863 W/m 23,2 km/h (4 Bft)
02.06.2013 13:54 16,9 C 17,9 C 49 % 1024,3 hPa 0,0 l/m 2 min 0 min 4,8 UV-I 867 W/m 25,7 km/h (4 Bft)
02.06.2013 13:56 16,8 C 17,9 C 50 % 1024,3 hPa 0,0 l/m 2 min 0 min 4,9 UV-I 882 W/m 18,0 km/h (3 Bft)
02.06.2013 13:58 16,9 C 17,9 C 49 % 1024,2 hPa 0,0 l/m 2 min 0 min 4,8 UV-I 865 W/m 20,6 km/h (4 Bft)
02.06.2013 14:00 17,0 C 17,9 C 50 % 1024,2 hPa 0,0 l/m 2 min 0 min 4,7 UV-I 847 W/m 18,0 km/h (3 Bft)
02.06.2013 14:02 17,2 C 18,4 C 52 % 1024,1 hPa 0,0 l/m 2 min 0 min 4,8 UV-I 842 W/m 12,9 km/h (3 Bft)
02.06.2013 14:04 17,2 C 17,9 C 49 % 1024,2 hPa 0,0 l/m 2 min 0 min 4,8 UV-I 854 W/m 33,5 km/h (5 Bft)
02.06.2013 14:06 17,0 C 17,9 C 49 % 1024,2 hPa 0,0 l/m 2 min 0 min 4,8 UV-I 867 W/m 38,6 km/h (5 Bft)
02.06.2013 14:08 16,9 C 17,9 C 51 % 1024,2 hPa 0,0 l/m 2 min 0 min 4,8 UV-I 868 W/m 25,7 km/h (4 Bft)
02.06.2013 14:10 16,9 C 17,9 C 50 % 1024,2 hPa 0,0 l/m 2 min 0 min 4,7 UV-I 847 W/m 18,0 km/h (3 Bft)
02.06.2013 14:12 16,9 C 17,9 C 51 % 1024,1 hPa 0,0 l/m 2 min 0 min 4,7 UV-I 846 W/m 15,4 km/h (3 Bft)
02.06.2013 14:14 17,2 C 19,0 C 52 % 1024,2 hPa 0,0 l/m 2 min 0 min 4,6 UV-I 824 W/m 28,3 km/h (4 Bft)
02.06.2013 14:16 17,4 C 19,0 C 50 % 1024,1 hPa 0,0 l/m 2 min 0 min 4,7 UV-I 837 W/m 10,3 km/h (2 Bft)
02.06.2013 14:18 17,5 C 19,0 C 49 % 1024,2 hPa 0,0 l/m 2 min 0 min 4,7 UV-I 828 W/m 25,7 km/h (4 Bft)
02.06.2013 14:20 17,4 C 19,0 C 48 % 1024,2 hPa 0,0 l/m 2 min 0 min 4,5 UV-I 817 W/m 20,6 km/h (4 Bft)
02.06.2013 14:22 17,4 C 18,4 C 49 % 1024,3 hPa 0,0 l/m 2 min 0 min 4,3 UV-I 756 W/m 28,3 km/h (4 Bft)
02.06.2013 14:24 17,4 C 19,0 C 50 % 1024,2 hPa 0,0 l/m 2 min 0 min 4,4 UV-I 838 W/m 23,2 km/h (4 Bft)
02.06.2013 14:26 17,2 C 19,0 C 48 % 1024,2 hPa 0,0 l/m 2 min 0 min 4,6 UV-I 837 W/m 18,0 km/h (3 Bft)
02.06.2013 14:28 17,3 C 19,6 C 52 % 1024,2 hPa 0,0 l/m 2 min 0 min 4,6 UV-I 838 W/m 15,4 km/h (3 Bft)
02.06.2013 14:30 17,6 C 19,6 C 52 % 1024,2 hPa 0,0 l/m 2 min 0 min 4,0 UV-I 652 W/m 12,9 km/h (3 Bft)
02.06.2013 14:32 17,6 C 19,0 C 49 % 1024,3 hPa 0,0 l/m 2 min 0 min 3,9 UV-I 628 W/m 36,0 km/h (5 Bft)
02.06.2013 14:34 17,5 C 19,0 C 49 % 1024,2 hPa 0,0 l/m 2 min 0 min 4,2 UV-I 728 W/m 18,0 km/h (3 Bft)
02.06.2013 14:36 17,4 C 18,4 C 47 % 1024,3 hPa 0,0 l/m 2 min 0 min 4,7 UV-I 851 W/m 30,9 km/h (5 Bft)
02.06.2013 14:38 17,3 C 19,0 C 48 % 1024,3 hPa 0,0 l/m 2 min 0 min 4,7 UV-I 863 W/m 18,0 km/h (3 Bft)
02.06.2013 14:40 17,2 C 18,4 C 48 % 1024,2 hPa 0,0 l/m 2 min 0 min 4,7 UV-I 861 W/m 25,7 km/h (4 Bft)
02.06.2013 14:42 17,3 C 19,0 C 50 % 1024,2 hPa 0,0 l/m 2 min 0 min 4,7 UV-I 867 W/m 20,6 km/h (4 Bft)
02.06.2013 14:44 17,4 C 19,6 C 49 % 1024,2 hPa 0,0 l/m 2 min 0 min 4,7 UV-I 860 W/m 23,2 km/h (4 Bft)
02.06.2013 14:46 17,4 C 20,1 C 48 % 1024,3 hPa 0,0 l/m 2 min 0 min 4,7 UV-I 858 W/m 33,5 km/h (5 Bft)
02.06.2013 14:48 17,4 C 20,1 C 50 % 1024,2 hPa 0,0 l/m 2 min 0 min 4,6 UV-I 856 W/m 18,0 km/h (3 Bft)
02.06.2013 14:50 17,4 C 20,1 C 49 % 1024,1 hPa 0,0 l/m 2 min 0 min 4,6 UV-I 854 W/m 15,4 km/h (3 Bft)
02.06.2013 14:52 17,4 C 19,0 C 48 % 1024,1 hPa 0,0 l/m 2 min 0 min 4,6 UV-I 849 W/m 18,0 km/h (3 Bft)
02.06.2013 14:54 17,6 C 19,0 C 50 % 1024,1 hPa 0,0 l/m 2 min 0 min 4,6 UV-I 849 W/m 23,2 km/h (4 Bft)
02.06.2013 14:56 17,6 C 18,4 C 48 % 1024,1 hPa 0,0 l/m 2 min 0 min 4,6 UV-I 847 W/m 28,3 km/h (4 Bft)
02.06.2013 14:58 17,6 C 18,4 C 47 % 1024,1 hPa 0,0 l/m 2 min 0 min 4,5 UV-I 844 W/m 23,2 km/h (4 Bft)
02.06.2013 15:00 17,7 C 18,4 C 47 % 1024,2 hPa 0,0 l/m 2 min 0 min 4,5 UV-I 840 W/m 18,0 km/h (3 Bft)
02.06.2013 15:02 17,7 C 18,4 C 46 % 1024,2 hPa 0,0 l/m 2 min 0 min 4,4 UV-I 833 W/m 23,2 km/h (4 Bft)
02.06.2013 15:04 17,6 C 17,9 C 47 % 1024,1 hPa 0,0 l/m 2 min 0 min 4,4 UV-I 833 W/m 25,7 km/h (4 Bft)
02.06.2013 15:06 17,6 C 17,9 C 47 % 1024,1 hPa 0,0 l/m 2 min 0 min 4,4 UV-I 828 W/m 18,0 km/h (3 Bft)
02.06.2013 15:08 17,6 C 18,4 C 51 % 1024,1 hPa 0,0 l/m 2 min 0 min 4,4 UV-I 828 W/m 25,7 km/h (4 Bft)
02.06.2013 15:10 17,9 C 19,0 C 51 % 1024,1 hPa 0,0 l/m 2 min 0 min 4,3 UV-I 823 W/m 12,9 km/h (3 Bft)
02.06.2013 15:12 18,0 C 19,0 C 45 % 1024,1 hPa 0,0 l/m 2 min 0 min 4,3 UV-I 819 W/m 28,3 km/h (4 Bft)
02.06.2013 15:14 17,9 C 18,4 C 48 % 1024,2 hPa 0,0 l/m 2 min 0 min 4,2 UV-I 809 W/m 28,3 km/h (4 Bft)
02.06.2013 15:16 17,8 C 18,4 C 46 % 1024,2 hPa 0,0 l/m 2 min 0 min 4,2 UV-I 812 W/m 23,2 km/h (4 Bft)
02.06.2013 15:18 17,8 C 18,4 C 47 % 1024,0 hPa 0,0 l/m 2 min 0 min 4,2 UV-I 810 W/m 18,0 km/h (3 Bft)
02.06.2013 15:20 18,1 C 19,0 C 47 % 1024,1 hPa 0,0 l/m 2 min 0 min 4,2 UV-I 810 W/m 23,2 km/h (4 Bft)
02.06.2013 15:22 18,0 C 18,4 C 46 % 1024,2 hPa 0,0 l/m 2 min 0 min 4,1 UV-I 807 W/m 33,5 km/h (5 Bft)
02.06.2013 15:24 17,9 C 18,4 C 47 % 1024,2 hPa 0,0 l/m 2 min 0 min 4,1 UV-I 803 W/m 23,2 km/h (4 Bft)
02.06.2013 15:26 17,8 C 18,4 C 47 % 1024,1 hPa 0,0 l/m 2 min 0 min 4,0 UV-I 802 W/m 28,3 km/h (4 Bft)
02.06.2013 15:28 17,7 C 17,9 C 46 % 1024,1 hPa 0,0 l/m 2 min 0 min 4,1 UV-I 798 W/m 25,7 km/h (4 Bft)
02.06.2013 15:30 17,8 C 18,4 C 48 % 1024,1 hPa 0,0 l/m 2 min 0 min 4,0 UV-I 791 W/m 20,6 km/h (4 Bft)
02.06.2013 15:32 17,8 C 18,4 C 47 % 1024,1 hPa 0,0 l/m 2 min 0 min 4,0 UV-I 789 W/m 23,2 km/h (4 Bft)
02.06.2013 15:34 17,8 C 18,4 C 47 % 1024,1 hPa 0,0 l/m 2 min 0 min 3,9 UV-I 789 W/m 15,4 km/h (3 Bft)
02.06.2013 15:36 17,8 C 18,4 C 47 % 1024,0 hPa 0,0 l/m 2 min 0 min 3,9 UV-I 796 W/m 25,7 km/h (4 Bft)
02.06.2013 15:38 17,8 C 18,4 C 47 % 1024,1 hPa 0,0 l/m 2 min 0 min 3,9 UV-I 793 W/m 28,3 km/h (4 Bft)
02.06.2013 15:40 17,8 C 18,4 C 47 % 1024,0 hPa 0,0 l/m 2 min 0 min 3,8 UV-I 786 W/m 28,3 km/h (4 Bft)
02.06.2013 15:42 17,7 C 18,4 C 47 % 1024,1 hPa 0,0 l/m 2 min 0 min 3,8 UV-I 780 W/m 25,7 km/h (4 Bft)
02.06.2013 15:44 17,7 C 18,4 C 48 % 1024,1 hPa 0,0 l/m 2 min 0 min 3,8 UV-I 773 W/m 20,6 km/h (4 Bft)
02.06.2013 15:46 17,9 C 19,0 C 49 % 1024,0 hPa 0,0 l/m 2 min 0 min 3,7 UV-I 772 W/m 18,0 km/h (3 Bft)
02.06.2013 15:48 17,7 C 19,0 C 48 % 1024,1 hPa 0,0 l/m 2 min 0 min 3,7 UV-I 768 W/m 15,4 km/h (3 Bft)
02.06.2013 15:50 17,8 C 19,0 C 51 % 1024,1 hPa 0,0 l/m 2 min 0 min 3,6 UV-I 761 W/m 23,2 km/h (4 Bft)
02.06.2013 15:52 18,1 C 19,0 C 51 % 1024,1 hPa 0,0 l/m 2 min 0 min 3,6 UV-I 789 W/m 25,7 km/h (4 Bft)
02.06.2013 15:54 18,2 C 19,0 C 49 % 1024,0 hPa 0,0 l/m 2 min 0 min 3,6 UV-I 798 W/m 23,2 km/h (4 Bft)
02.06.2013 15:56 18,1 C 19,6 C 49 % 1024,0 hPa 0,0 l/m 2 min 0 min 3,6 UV-I 786 W/m 28,3 km/h (4 Bft)
02.06.2013 15:58 17,9 C 20,7 C 49 % 1024,1 hPa 0,0 l/m 2 min 0 min 3,5 UV-I 770 W/m 15,4 km/h (3 Bft)
02.06.2013 16:00 17,9 C 21,8 C 49 % 1024,1 hPa 0,0 l/m 2 min 0 min 3,6 UV-I 810 W/m 20,6 km/h (4 Bft)
02.06.2013 16:02 18,2 C 21,8 C 50 % 1024,1 hPa 0,0 l/m 2 min 0 min 3,4 UV-I 789 W/m 25,7 km/h (4 Bft)
02.06.2013 16:04 18,2 C 20,1 C 48 % 1024,1 hPa 0,0 l/m 2 min 0 min 3,4 UV-I 740 W/m 25,7 km/h (4 Bft)
02.06.2013 16:06 18,0 C 19,0 C 49 % 1024,2 hPa 0,0 l/m 2 min 0 min 2,4 UV-I 773 W/m 25,7 km/h (4 Bft)
02.06.2013 16:08 18,0 C 18,4 C 49 % 1024,2 hPa 0,0 l/m 0 min 0 min 1,4 UV-I 114 W/m 25,7 km/h (4 Bft)
02.06.2013 16:10 17,8 C 19,0 C 49 % 1024,2 hPa 0,0 l/m 2 min 0 min 3,3 UV-I 742 W/m 28,3 km/h (4 Bft)
02.06.2013 16:12 17,7 C 19,0 C 50 % 1024,2 hPa 0,0 l/m 2 min 0 min 3,2 UV-I 735 W/m 28,3 km/h (4 Bft)
02.06.2013 16:14 17,8 C 18,4 C 50 % 1024,2 hPa 0,0 l/m 2 min 0 min 1,6 UV-I 671 W/m 18,0 km/h (3 Bft)
02.06.2013 16:16 17,8 C 17,9 C 49 % 1024,3 hPa 0,0 l/m 2 min 0 min 3,2 UV-I 756 W/m 28,3 km/h (4 Bft)
02.06.2013 16:18 17,7 C 17,9 C 50 % 1024,2 hPa 0,0 l/m 2 min 0 min 3,1 UV-I 737 W/m 28,3 km/h (4 Bft)
02.06.2013 16:20 17,8 C 18,4 C 50 % 1024,3 hPa 0,0 l/m 2 min 0 min 3,1 UV-I 728 W/m 25,7 km/h (4 Bft)
02.06.2013 16:22 17,7 C 17,9 C 49 % 1024,3 hPa 0,0 l/m 2 min 0 min 3,0 UV-I 737 W/m 20,6 km/h (4 Bft)
02.06.2013 16:24 17,8 C 18,4 C 51 % 1024,3 hPa 0,0 l/m 2 min 0 min 3,0 UV-I 744 W/m 23,2 km/h (4 Bft)
02.06.2013 16:26 17,9 C 18,4 C 50 % 1024,3 hPa 0,0 l/m 2 min 0 min 2,3 UV-I 770 W/m 33,5 km/h (5 Bft)
02.06.2013 16:28 17,8 C 17,9 C 50 % 1024,4 hPa 0,0 l/m 2 min 0 min 3,0 UV-I 751 W/m 33,5 km/h (5 Bft)
02.06.2013 16:30 17,8 C 18,4 C 52 % 1024,3 hPa 0,0 l/m 2 min 0 min 2,9 UV-I 751 W/m 23,2 km/h (4 Bft)
02.06.2013 16:32 17,8 C 17,9 C 50 % 1024,4 hPa 0,0 l/m 2 min 0 min 2,3 UV-I 751 W/m 25,7 km/h (4 Bft)
02.06.2013 16:34 17,7 C 17,9 C 50 % 1024,4 hPa 0,0 l/m 0 min 0 min 1,2 UV-I 178 W/m 25,7 km/h (4 Bft)
02.06.2013 16:36 17,4 C 17,9 C 51 % 1024,3 hPa 0,0 l/m 0 min 0 min 2,8 UV-I 193 W/m 25,7 km/h (4 Bft)
02.06.2013 16:38 17,6 C 17,9 C 52 % 1024,4 hPa 0,0 l/m 2 min 0 min 2,8 UV-I 833 W/m 15,4 km/h (3 Bft)
02.06.2013 16:40 17,8 C 18,4 C 51 % 1024,4 hPa 0,0 l/m 2 min 0 min 1,3 UV-I 833 W/m 18,0 km/h (3 Bft)
02.06.2013 16:42 17,8 C 18,4 C 50 % 1024,4 hPa 0,0 l/m 2 min 0 min 2,6 UV-I 833 W/m 25,7 km/h (4 Bft)
02.06.2013 16:44 17,7 C 18,4 C 50 % 1024,4 hPa 0,0 l/m 2 min 0 min 2,7 UV-I 810 W/m 28,3 km/h (4 Bft)
02.06.2013 16:46 17,7 C 18,4 C 51 % 1024,3 hPa 0,0 l/m 2 min 0 min 2,6 UV-I 788 W/m 23,2 km/h (4 Bft)
02.06.2013 16:48 17,8 C 18,4 C 52 % 1024,4 hPa 0,0 l/m 2 min 0 min 2,6 UV-I 784 W/m 28,3 km/h (4 Bft)
02.06.2013 16:50 17,9 C 19,0 C 51 % 1024,4 hPa 0,0 l/m 2 min 0 min 2,5 UV-I 798 W/m 28,3 km/h (4 Bft)
02.06.2013 16:52 18,1 C 19,0 C 50 % 1024,4 hPa 0,0 l/m 2 min 0 min 2,4 UV-I 770 W/m 20,6 km/h (4 Bft)
02.06.2013 16:54 18,2 C 19,0 C 50 % 1024,4 hPa 0,0 l/m 2 min 0 min 2,4 UV-I 731 W/m 23,2 km/h (4 Bft)
02.06.2013 16:56 18,3 C 19,0 C 51 % 1024,4 hPa 0,0 l/m 2 min 0 min 2,4 UV-I 687 W/m 23,2 km/h (4 Bft)
02.06.2013 16:58 18,2 C 18,4 C 50 % 1024,6 hPa 0,0 l/m 2 min 0 min 1,0 UV-I 686 W/m 25,7 km/h (4 Bft)
02.06.2013 17:00 18,2 C 18,4 C 49 % 1024,5 hPa 0,0 l/m 2 min 0 min 2,3 UV-I 661 W/m 23,2 km/h (4 Bft)
02.06.2013 17:02 18,1 C 17,9 C 50 % 1024,5 hPa 0,0 l/m 2 min 0 min 2,2 UV-I 643 W/m 25,7 km/h (4 Bft)
02.06.2013 17:04 17,9 C 17,9 C 50 % 1024,5 hPa 0,0 l/m 2 min 0 min 1,0 UV-I 668 W/m 28,3 km/h (4 Bft)
02.06.2013 17:06 17,8 C 17,3 C 50 % 1024,6 hPa 0,0 l/m 2 min 0 min 1,0 UV-I 668 W/m 25,7 km/h (4 Bft)
02.06.2013 17:08 17,6 C 17,3 C 51 % 1024,5 hPa 0,0 l/m 2 min 0 min 1,2 UV-I 668 W/m 12,9 km/h (3 Bft)
02.06.2013 17:10 17,4 C 16,8 C 50 % 1024,6 hPa 0,0 l/m 0 min 0 min 0,9 UV-I 153 W/m 33,5 km/h (5 Bft)
02.06.2013 17:12 17,3 C 17,3 C 51 % 1024,5 hPa 0,0 l/m 0 min 0 min 2,1 UV-I 153 W/m 23,2 km/h (4 Bft)
02.06.2013 17:14 17,3 C 17,9 C 52 % 1024,4 hPa 0,0 l/m 2 min 0 min 1,9 UV-I 768 W/m 23,2 km/h (4 Bft)
02.06.2013 17:16 17,6 C 17,9 C 52 % 1024,6 hPa 0,0 l/m 2 min 0 min 1,8 UV-I 652 W/m 20,6 km/h (4 Bft)
02.06.2013 17:18 17,7 C 17,9 C 50 % 1024,5 hPa 0,0 l/m 2 min 0 min 1,9 UV-I 652 W/m 23,2 km/h (4 Bft)
02.06.2013 17:20 17,8 C 17,9 C 51 % 1024,5 hPa 0,0 l/m 2 min 0 min 1,9 UV-I 691 W/m 20,6 km/h (4 Bft)
02.06.2013 17:22 17,7 C 17,3 C 51 % 1024,4 hPa 0,0 l/m 0 min 0 min 0,7 UV-I 188 W/m 18,0 km/h (3 Bft)
02.06.2013 17:24 17,6 C 17,3 C 52 % 1024,4 hPa 0,0 l/m 0 min 0 min 0,6 UV-I 181 W/m 20,6 km/h (4 Bft)
02.06.2013 17:26 17,4 C 17,3 C 52 % 1024,5 hPa 0,0 l/m 2 min 0 min 1,7 UV-I 686 W/m 18,0 km/h (3 Bft)
02.06.2013 17:28 17,6 C 17,9 C 53 % 1024,4 hPa 0,0 l/m 2 min 0 min 1,6 UV-I 696 W/m 20,6 km/h (4 Bft)
02.06.2013 17:30 17,7 C 17,9 C 51 % 1024,6 hPa 0,0 l/m 2 min 0 min 1,6 UV-I 712 W/m 28,3 km/h (4 Bft)
02.06.2013 17:32 17,7 C 17,3 C 50 % 1024,6 hPa 0,0 l/m 2 min 0 min 1,3 UV-I 650 W/m 36,0 km/h (5 Bft)
02.06.2013 17:34 17,7 C 17,3 C 52 % 1024,5 hPa 0,0 l/m 2 min 0 min 1,5 UV-I 654 W/m 23,2 km/h (4 Bft)
02.06.2013 17:36 17,7 C 17,3 C 51 % 1024,6 hPa 0,0 l/m 2 min 0 min 1,5 UV-I 631 W/m 48,9 km/h (6 Bft)
02.06.2013 17:38 17,6 C 17,3 C 51 % 1024,5 hPa 0,0 l/m 0 min 0 min 0,7 UV-I 200 W/m 38,6 km/h (5 Bft)
02.06.2013 17:40 17,5 C 16,8 C 51 % 1024,6 hPa 0,0 l/m 0 min 0 min 0,6 UV-I 137 W/m 33,5 km/h (5 Bft)
02.06.2013 17:42 17,3 C 16,8 C 50 % 1024,6 hPa 0,0 l/m 2 min 0 min 1,3 UV-I 601 W/m 23,2 km/h (4 Bft)
02.06.2013 17:44 17,3 C 16,8 C 51 % 1024,5 hPa 0,0 l/m 2 min 0 min 0,5 UV-I 578 W/m 28,3 km/h (4 Bft)
02.06.2013 17:46 17,3 C 16,8 C 51 % 1024,5 hPa 0,0 l/m 2 min 0 min 1,2 UV-I 578 W/m 28,3 km/h (4 Bft)
02.06.2013 17:48 17,3 C 16,8 C 52 % 1024,5 hPa 0,0 l/m 2 min 0 min 1,3 UV-I 621 W/m 20,6 km/h (4 Bft)
02.06.2013 17:50 17,4 C 17,3 C 53 % 1024,6 hPa 0,0 l/m 2 min 0 min 1,2 UV-I 633 W/m 23,2 km/h (4 Bft)
02.06.2013 17:52 17,4 C 17,3 C 52 % 1024,4 hPa 0,0 l/m 2 min 0 min 1,1 UV-I 610 W/m 23,2 km/h (4 Bft)
02.06.2013 17:54 17,6 C 17,3 C 53 % 1024,4 hPa 0,0 l/m 2 min 0 min 0,0 UV-I 559 W/m 12,9 km/h (3 Bft)
02.06.2013 17:56 17,6 C 17,3 C 52 % 1024,6 hPa 0,0 l/m 0 min 0 min 0,5 UV-I 165 W/m 20,6 km/h (4 Bft)
02.06.2013 17:58 17,4 C 16,8 C 54 % 1024,5 hPa 0,0 l/m 0 min 0 min 0,8 UV-I 176 W/m 18,0 km/h (3 Bft)
02.06.2013 18:00 17,3 C 16,8 C 53 % 1024,5 hPa 0,0 l/m 0 min 0 min 0,0 UV-I 195 W/m 18,0 km/h (3 Bft)
02.06.2013 18:02 17,1 C 16,8 C 53 % 1024,6 hPa 0,0 l/m 0 min 0 min 0,9 UV-I 195 W/m 20,6 km/h (4 Bft)
02.06.2013 18:04 17,2 C 16,8 C 54 % 1024,6 hPa 0,0 l/m 0 min 0 min 0,8 UV-I 195 W/m 18,0 km/h (3 Bft)
02.06.2013 18:06 17,3 C 17,3 C 53 % 1024,4 hPa 0,0 l/m 0 min 0 min 1,0 UV-I 234 W/m 28,3 km/h (4 Bft)
02.06.2013 18:08 17,4 C 17,3 C 52 % 1024,6 hPa 0,0 l/m 2 min 0 min 0,7 UV-I 323 W/m 33,5 km/h (5 Bft)
02.06.2013 18:10 17,6 C 17,3 C 52 % 1024,5 hPa 0,0 l/m 2 min 0 min 0,8 UV-I 323 W/m 18,0 km/h (3 Bft)
02.06.2013 18:12 17,7 C 16,8 C 51 % 1024,6 hPa 0,0 l/m 0 min 0 min 0,8 UV-I 156 W/m 18,0 km/h (3 Bft)
02.06.2013 18:14 17,6 C 16,8 C 50 % 1024,5 hPa 0,0 l/m 2 min 0 min 0,9 UV-I 455 W/m 18,0 km/h (3 Bft)
02.06.2013 18:16 17,5 C 16,8 C 51 % 1024,5 hPa 0,0 l/m 2 min 0 min 0,8 UV-I 420 W/m 25,7 km/h (4 Bft)
02.06.2013 18:18 17,5 C 16,8 C 52 % 1024,5 hPa 0,0 l/m 0 min 0 min 0,0 UV-I 167 W/m 12,9 km/h (3 Bft)
02.06.2013 18:20 17,4 C 16,8 C 52 % 1024,5 hPa 0,0 l/m 2 min 0 min 0,8 UV-I 466 W/m 33,5 km/h (5 Bft)
02.06.2013 18:22 17,4 C 16,8 C 51 % 1024,6 hPa 0,0 l/m 2 min 0 min 0,8 UV-I 501 W/m 25,7 km/h (4 Bft)
02.06.2013 18:24 17,3 C 16,2 C 52 % 1024,5 hPa 0,0 l/m 2 min 0 min 0,7 UV-I 464 W/m 25,7 km/h (4 Bft)
02.06.2013 18:26 17,3 C 16,8 C 52 % 1024,6 hPa 0,0 l/m 2 min 0 min 0,0 UV-I 439 W/m 23,2 km/h (4 Bft)
02.06.2013 18:28 17,3 C 16,2 C 51 % 1024,6 hPa 0,0 l/m 2 min 0 min 0,0 UV-I 348 W/m 33,5 km/h (5 Bft)
02.06.2013 18:30 17,3 C 16,2 C 52 % 1024,7 hPa 0,0 l/m 0 min 0 min 0,0 UV-I 116 W/m 28,3 km/h (4 Bft)
02.06.2013 18:32 17,3 C 16,2 C 52 % 1024,7 hPa 0,0 l/m 0 min 0 min 0,0 UV-I 102 W/m 28,3 km/h (4 Bft)
02.06.2013 18:34 17,3 C 16,2 C 52 % 1024,6 hPa 0,0 l/m 0 min 0 min 0,5 UV-I 183 W/m 23,2 km/h (4 Bft)
02.06.2013 18:36 17,3 C 16,2 C 52 % 1024,6 hPa 0,0 l/m 0 min 0 min 0,0 UV-I 183 W/m 23,2 km/h (4 Bft)
02.06.2013 18:38 17,3 C 16,8 C 51 % 1024,7 hPa 0,0 l/m 0 min 0 min 0,0 UV-I 207 W/m 23,2 km/h (4 Bft)
02.06.2013 18:40 17,2 C 16,8 C 52 % 1024,7 hPa 0,0 l/m 0 min 0 min 0,0 UV-I 204 W/m 30,9 km/h (5 Bft)
02.06.2013 18:42 17,3 C 16,8 C 52 % 1024,6 hPa 0,0 l/m 0 min 0 min 0,0 UV-I 130 W/m 15,4 km/h (3 Bft)
02.06.2013 18:44 17,3 C 16,8 C 53 % 1024,6 hPa 0,0 l/m 0 min 0 min 0,0 UV-I 107 W/m 18,0 km/h (3 Bft)
02.06.2013 18:46 17,3 C 16,2 C 53 % 1024,7 hPa 0,0 l/m 0 min 0 min 0,0 UV-I 105 W/m 23,2 km/h (4 Bft)
02.06.2013 18:48 17,1 C 16,2 C 52 % 1024,7 hPa 0,0 l/m 0 min 0 min 0,0 UV-I 111 W/m 20,6 km/h (4 Bft)
02.06.2013 18:50 16,9 C 16,2 C 53 % 1024,6 hPa 0,0 l/m 0 min 0 min 0,0 UV-I 116 W/m 18,0 km/h (3 Bft)
02.06.2013 18:52 16,8 C 16,2 C 52 % 1024,6 hPa 0,0 l/m 0 min 0 min 0,0 UV-I 128 W/m 20,6 km/h (4 Bft)
02.06.2013 18:54 16,8 C 15,7 C 53 % 1024,6 hPa 0,0 l/m 0 min 0 min 0,0 UV-I 90 W/m 18,0 km/h (3 Bft)
02.06.2013 18:56 16,9 C 16,2 C 53 % 1024,7 hPa 0,0 l/m 0 min 0 min 0,0 UV-I 98 W/m 28,3 km/h (4 Bft)
02.06.2013 18:58 17,0 C 16,2 C 54 % 1024,6 hPa 0,0 l/m 0 min 0 min 0,0 UV-I 120 W/m 15,4 km/h (3 Bft)
02.06.2013 19:00 17,1 C 16,2 C 53 % 1024,6 hPa 0,0 l/m 0 min 0 min 0,0 UV-I 199 W/m 18,0 km/h (3 Bft)
02.06.2013 19:02 17,2 C 16,2 C 53 % 1024,6 hPa 0,0 l/m 0 min 0 min 0,0 UV-I 132 W/m 20,6 km/h (4 Bft)
02.06.2013 19:04 17,2 C 16,2 C 52 % 1024,5 hPa 0,0 l/m 0 min 0 min 0,0 UV-I 125 W/m 20,6 km/h (4 Bft)
02.06.2013 19:06 17,2 C 16,2 C 51 % 1024,6 hPa 0,0 l/m 0 min 0 min 0,0 UV-I 111 W/m 30,9 km/h (5 Bft)
02.06.2013 19:08 17,1 C 16,2 C 52 % 1024,6 hPa 0,0 l/m 0 min 0 min 0,0 UV-I 95 W/m 18,0 km/h (3 Bft)
02.06.2013 19:10 17,1 C 16,2 C 52 % 1024,6 hPa 0,0 l/m 0 min 0 min 0,0 UV-I 84 W/m 28,3 km/h (4 Bft)
02.06.2013 19:12 17,1 C 16,2 C 53 % 1024,6 hPa 0,0 l/m 0 min 0 min 0,0 UV-I 81 W/m 18,0 km/h (3 Bft)
02.06.2013 19:14 17,1 C 16,2 C 53 % 1024,6 hPa 0,0 l/m 0 min 0 min 0,0 UV-I 81 W/m 25,7 km/h (4 Bft)
02.06.2013 19:16 16,9 C 15,7 C 52 % 1024,6 hPa 0,0 l/m 0 min 0 min 0,0 UV-I 77 W/m 28,3 km/h (4 Bft)
02.06.2013 19:18 16,9 C 15,7 C 52 % 1024,6 hPa 0,0 l/m 0 min 0 min 0,0 UV-I 76 W/m 33,5 km/h (5 Bft)
02.06.2013 19:20 16,8 C 15,7 C 52 % 1024,6 hPa 0,0 l/m 0 min 0 min 0,0 UV-I 74 W/m 28,3 km/h (4 Bft)
02.06.2013 19:22 16,8 C 15,7 C 53 % 1024,7 hPa 0,0 l/m 0 min 0 min 0,0 UV-I 72 W/m 25,7 km/h (4 Bft)
02.06.2013 19:24 16,8 C 15,7 C 52 % 1024,7 hPa 0,0 l/m 0 min 0 min 0,0 UV-I 72 W/m 33,5 km/h (5 Bft)
02.06.2013 19:26 16,7 C 15,7 C 52 % 1024,6 hPa 0,0 l/m 0 min 0 min 0,0 UV-I 70 W/m 36,0 km/h (5 Bft)
02.06.2013 19:28 16,7 C 15,7 C 52 % 1024,8 hPa 0,0 l/m 0 min 0 min 0,0 UV-I 70 W/m 25,7 km/h (4 Bft)
02.06.2013 19:30 16,7 C 15,7 C 52 % 1024,8 hPa 0,0 l/m 0 min 0 min 0,0 UV-I 72 W/m 23,2 km/h (4 Bft)
02.06.2013 19:32 16,7 C 15,7 C 54 % 1024,7 hPa 0,0 l/m 0 min 0 min 0,0 UV-I 74 W/m 15,4 km/h (3 Bft)
02.06.2013 19:34 16,7 C 15,7 C 53 % 1024,7 hPa 0,0 l/m 0 min 0 min 0,0 UV-I 72 W/m 33,5 km/h (5 Bft)
02.06.2013 19:36 16,7 C 15,7 C 53 % 1024,7 hPa 0,0 l/m 0 min 0 min 0,0 UV-I 72 W/m 20,6 km/h (4 Bft)
02.06.2013 19:38 16,7 C 15,7 C 53 % 1024,8 hPa 0,0 l/m 0 min 0 min 0,0 UV-I 70 W/m 41,2 km/h (6 Bft)
02.06.2013 19:40 16,7 C 15,7 C 53 % 1024,7 hPa 0,0 l/m 0 min 0 min 0,0 UV-I 70 W/m 20,6 km/h (4 Bft)
02.06.2013 19:42 16,7 C 15,7 C 53 % 1024,8 hPa 0,0 l/m 0 min 0 min 0,0 UV-I 69 W/m 25,7 km/h (4 Bft)
02.06.2013 19:44 16,7 C 15,7 C 53 % 1024,7 hPa 0,0 l/m 0 min 0 min 0,0 UV-I 69 W/m 20,6 km/h (4 Bft)
02.06.2013 19:46 16,6 C 15,7 C 54 % 1024,7 hPa 0,0 l/m 0 min 0 min 0,0 UV-I 65 W/m 15,4 km/h (3 Bft)
02.06.2013 19:48 16,6 C 15,7 C 54 % 1024,7 hPa 0,0 l/m 0 min 0 min 0,0 UV-I 62 W/m 18,0 km/h (3 Bft)
02.06.2013 19:50 16,6 C 15,7 C 53 % 1024,8 hPa 0,0 l/m 0 min 0 min 0,0 UV-I 58 W/m 23,2 km/h (4 Bft)
02.06.2013 19:52 16,6 C 15,1 C 53 % 1024,9 hPa 0,0 l/m 0 min 0 min 0,0 UV-I 54 W/m 25,7 km/h (4 Bft)
02.06.2013 19:54 16,4 C 15,1 C 53 % 1024,9 hPa 0,0 l/m 0 min 0 min 0,0 UV-I 54 W/m 30,9 km/h (5 Bft)
02.06.2013 19:56 16,3 C 15,1 C 53 % 1025,0 hPa 0,0 l/m 0 min 0 min 0,0 UV-I 54 W/m 25,7 km/h (4 Bft)
02.06.2013 19:58 16,2 C 15,1 C 53 % 1025,0 hPa 0,0 l/m 0 min 0 min 0,0 UV-I 60 W/m 25,7 km/h (4 Bft)
02.06.2013 20:00 16,1 C 15,1 C 53 % 1025,0 hPa 0,0 l/m 0 min 0 min 0,0 UV-I 56 W/m 20,6 km/h (4 Bft)
02.06.2013 20:02 16,1 C 15,1 C 54 % 1025,0 hPa 0,0 l/m 0 min 0 min 0,0 UV-I 54 W/m 30,9 km/h (5 Bft)
02.06.2013 20:04 16,1 C 14,6 C 54 % 1025,0 hPa 0,0 l/m 0 min 0 min 0,0 UV-I 53 W/m 15,4 km/h (3 Bft)
02.06.2013 20:06 16,0 C 15,1 C 55 % 1024,9 hPa 0,0 l/m 0 min 0 min 0,0 UV-I 54 W/m 15,4 km/h (3 Bft)
02.06.2013 20:08 16,1 C 15,1 C 55 % 1024,9 hPa 0,0 l/m 0 min 0 min 0,0 UV-I 58 W/m 12,9 km/h (3 Bft)
02.06.2013 20:10 16,0 C 15,1 C 56 % 1025,0 hPa 0,0 l/m 0 min 0 min 0,0 UV-I 58 W/m 12,9 km/h (3 Bft)
02.06.2013 20:12 16,0 C 15,1 C 56 % 1025,0 hPa 0,0 l/m 0 min 0 min 0,0 UV-I 60 W/m 18,0 km/h (3 Bft)
02.06.2013 20:14 16,0 C 15,1 C 56 % 1025,0 hPa 0,0 l/m 0 min 0 min 0,0 UV-I 60 W/m 20,6 km/h (4 Bft)
02.06.2013 20:16 16,0 C 15,1 C 56 % 1025,0 hPa 0,0 l/m 0 min 0 min 0,0 UV-I 60 W/m 25,7 km/h (4 Bft)
02.06.2013 20:18 16,1 C 15,1 C 56 % 1025,1 hPa 0,0 l/m 0 min 0 min 0,0 UV-I 58 W/m 25,7 km/h (4 Bft)
02.06.2013 20:20 16,0 C 15,1 C 56 % 1025,1 hPa 0,0 l/m 0 min 0 min 0,0 UV-I 56 W/m 20,6 km/h (4 Bft)
02.06.2013 20:22 16,1 C 15,1 C 56 % 1025,1 hPa 0,0 l/m 0 min 0 min 0,0 UV-I 56 W/m 18,0 km/h (3 Bft)
02.06.2013 20:24 16,0 C 15,1 C 56 % 1025,1 hPa 0,0 l/m 0 min 0 min 0,0 UV-I 56 W/m 23,2 km/h (4 Bft)
02.06.2013 20:26 15,9 C 15,1 C 56 % 1025,1 hPa 0,0 l/m 0 min 0 min 0,0 UV-I 54 W/m 25,7 km/h (4 Bft)
02.06.2013 20:28 15,9 C 14,6 C 56 % 1025,1 hPa 0,0 l/m 0 min 0 min 0,0 UV-I 53 W/m 12,9 km/h (3 Bft)
02.06.2013 20:30 15,9 C 14,6 C 57 % 1025,1 hPa 0,0 l/m 0 min 0 min 0,0 UV-I 53 W/m 15,4 km/h (3 Bft)
02.06.2013 20:32 15,8 C 14,6 C 57 % 1025,1 hPa 0,0 l/m 0 min 0 min 0,0 UV-I 51 W/m 12,9 km/h (3 Bft)
02.06.2013 20:34 15,8 C 14,6 C 57 % 1025,1 hPa 0,0 l/m 0 min 0 min 0,0 UV-I 49 W/m 15,4 km/h (3 Bft)
02.06.2013 20:36 15,8 C 14,6 C 57 % 1025,2 hPa 0,0 l/m 0 min 0 min 0,0 UV-I 51 W/m 15,4 km/h (3 Bft)
02.06.2013 20:38 15,8 C 14,6 C 57 % 1025,3 hPa 0,0 l/m 0 min 0 min 0,0 UV-I 47 W/m 20,6 km/h (4 Bft)
02.06.2013 20:40 15,7 C 14,6 C 57 % 1025,2 hPa 0,0 l/m 0 min 0 min 0,0 UV-I 44 W/m 12,9 km/h (3 Bft)
02.06.2013 20:42 15,7 C 14,6 C 56 % 1025,2 hPa 0,0 l/m 0 min 0 min 0,0 UV-I 44 W/m 28,3 km/h (4 Bft)
02.06.2013 20:44 15,6 C 14,6 C 57 % 1025,2 hPa 0,0 l/m 0 min 0 min 0,0 UV-I 42 W/m 25,7 km/h (4 Bft)
02.06.2013 20:46 15,6 C 14,6 C 57 % 1025,2 hPa 0,0 l/m 0 min 0 min 0,0 UV-I 42 W/m 23,2 km/h (4 Bft)
02.06.2013 20:48 15,4 C 14,0 C 57 % 1025,2 hPa 0,0 l/m 0 min 0 min 0,0 UV-I 42 W/m 23,2 km/h (4 Bft)
02.06.2013 20:50 15,4 C 14,0 C 58 % 1025,3 hPa 0,0 l/m 0 min 0 min 0,0 UV-I 40 W/m 18,0 km/h (3 Bft)
02.06.2013 20:52 15,3 C 14,0 C 58 % 1025,2 hPa 0,0 l/m 0 min 0 min 0,0 UV-I 39 W/m 23,2 km/h (4 Bft)
02.06.2013 20:54 15,3 C 14,0 C 59 % 1025,3 hPa 0,0 l/m 0 min 0 min 0,0 UV-I 37 W/m 15,4 km/h (3 Bft)
02.06.2013 20:56 15,2 C 14,0 C 59 % 1025,3 hPa 0,0 l/m 0 min 0 min 0,0 UV-I 35 W/m 18,0 km/h (3 Bft)
02.06.2013 20:58 15,2 C 14,0 C 59 % 1025,4 hPa 0,0 l/m 0 min 0 min 0,0 UV-I 35 W/m 20,6 km/h (4 Bft)
02.06.2013 21:00 15,1 C 14,0 C 59 % 1025,3 hPa 0,0 l/m 0 min 0 min 0,0 UV-I 33 W/m 20,6 km/h (4 Bft)
02.06.2013 21:02 15,1 C 14,0 C 59 % 1025,4 hPa 0,0 l/m 0 min 0 min 0,0 UV-I 32 W/m 23,2 km/h (4 Bft)
02.06.2013 21:04 15,1 C 14,0 C 59 % 1025,4 hPa 0,0 l/m 0 min 0 min 0,0 UV-I 32 W/m 28,3 km/h (4 Bft)
02.06.2013 21:06 15,0 C 14,0 C 59 % 1025,4 hPa 0,0 l/m 0 min 0 min 0,0 UV-I 30 W/m 28,3 km/h (4 Bft)
02.06.2013 21:08 14,9 C 14,0 C 59 % 1025,4 hPa 0,0 l/m 0 min 0 min 0,0 UV-I 28 W/m 20,6 km/h (4 Bft)
02.06.2013 21:10 14,9 C 13,4 C 59 % 1025,4 hPa 0,0 l/m 0 min 0 min 0,0 UV-I 26 W/m 18,0 km/h (3 Bft)
02.06.2013 21:12 14,8 C 13,4 C 59 % 1025,4 hPa 0,0 l/m 0 min 0 min 0,0 UV-I 25 W/m 18,0 km/h (3 Bft)
02.06.2013 21:14 14,8 C 13,4 C 59 % 1025,5 hPa 0,0 l/m 0 min 0 min 0,0 UV-I 23 W/m 23,2 km/h (4 Bft)
02.06.2013 21:16 14,8 C 13,4 C 60 % 1025,5 hPa 0,0 l/m 0 min 0 min 0,0 UV-I 21 W/m 18,0 km/h (3 Bft)
02.06.2013 21:18 14,7 C 13,4 C 60 % 1025,5 hPa 0,0 l/m 2 min 0 min 0,0 UV-I 21 W/m 20,6 km/h (4 Bft)
02.06.2013 21:20 14,7 C 13,4 C 59 % 1025,6 hPa 0,0 l/m 2 min 0 min 0,0 UV-I 19 W/m 20,6 km/h (4 Bft)
02.06.2013 21:22 14,6 C 13,4 C 59 % 1025,6 hPa 0,0 l/m 0 min 0 min 0,0 UV-I 18 W/m 18,0 km/h (3 Bft)
02.06.2013 21:24 14,5 C 13,4 C 60 % 1025,6 hPa 0,0 l/m 0 min 0 min 0,0 UV-I 16 W/m 12,9 km/h (3 Bft)
02.06.2013 21:26 14,4 C 13,4 C 60 % 1025,7 hPa 0,0 l/m 0 min 0 min 0,0 UV-I 14 W/m 20,6 km/h (4 Bft)
02.06.2013 21:28 14,4 C 12,9 C 60 % 1025,7 hPa 0,0 l/m 0 min 0 min 0,0 UV-I 14 W/m 15,4 km/h (3 Bft)
02.06.2013 21:30 14,3 C 12,9 C 60 % 1025,8 hPa 0,0 l/m 0 min 0 min 0,0 UV-I 12 W/m 18,0 km/h (3 Bft)
02.06.2013 21:32 14,3 C 12,9 C 60 % 1025,8 hPa 0,0 l/m 0 min 0 min 0,0 UV-I 12 W/m 18,0 km/h (3 Bft)
02.06.2013 21:34 14,3 C 12,9 C 60 % 1025,8 hPa 0,0 l/m 0 min 0 min 0,0 UV-I 11 W/m 18,0 km/h (3 Bft)
02.06.2013 21:36 14,2 C 12,9 C 61 % 1025,9 hPa 0,0 l/m 0 min 0 min 0,0 UV-I 11 W/m 20,6 km/h (4 Bft)
02.06.2013 21:38 14,1 C 12,9 C 61 % 1025,8 hPa 0,0 l/m 0 min 0 min 0,0 UV-I 9 W/m 15,4 km/h (3 Bft)
02.06.2013 21:40 14,0 C 12,9 C 61 % 1026,0 hPa 0,0 l/m 0 min 0 min 0,0 UV-I 7 W/m 18,0 km/h (3 Bft)
02.06.2013 21:42 14,0 C 12,9 C 62 % 1026,0 hPa 0,0 l/m 0 min 0 min 0,0 UV-I 7 W/m 15,4 km/h (3 Bft)
02.06.2013 21:44 14,0 C 12,9 C 62 % 1026,0 hPa 0,0 l/m 0 min 0 min 0,0 UV-I 7 W/m 12,9 km/h (3 Bft)
02.06.2013 21:46 14,0 C 12,3 C 62 % 1026,0 hPa 0,0 l/m 0 min 0 min 0,0 UV-I 7 W/m 18,0 km/h (3 Bft)
02.06.2013 21:48 14,0 C 12,3 C 63 % 1026,0 hPa 0,0 l/m 0 min 0 min 0,0 UV-I 5 W/m 18,0 km/h (3 Bft)
02.06.2013 21:50 13,9 C 12,3 C 63 % 1026,1 hPa 0,0 l/m 0 min 0 min 0,0 UV-I 5 W/m 20,6 km/h (4 Bft)
02.06.2013 21:52 13,8 C 12,3 C 63 % 1026,1 hPa 0,0 l/m 0 min 0 min 0,0 UV-I 5 W/m 18,0 km/h (3 Bft)
02.06.2013 21:54 13,8 C 12,3 C 64 % 1026,1 hPa 0,0 l/m 0 min 0 min 0,0 UV-I 5 W/m 7,7 km/h (2 Bft)
02.06.2013 21:56 13,7 C 12,3 C 64 % 1026,2 hPa 0,0 l/m 0 min 0 min 0,0 UV-I 0 W/m 15,4 km/h (3 Bft)
02.06.2013 21:58 13,6 C 12,3 C 64 % 1026,2 hPa 0,0 l/m 0 min 0 min 0,0 UV-I 0 W/m 10,3 km/h (2 Bft)
02.06.2013 22:00 13,6 C 12,3 C 64 % 1026,3 hPa 0,0 l/m 0 min 0 min 0,0 UV-I 0 W/m 15,4 km/h (3 Bft)
02.06.2013 22:02 13,5 C 12,3 C 65 % 1026,2 hPa 0,0 l/m 0 min 0 min 0,0 UV-I 0 W/m 12,9 km/h (3 Bft)
02.06.2013 22:04 13,4 C 11,8 C 65 % 1026,2 hPa 0,0 l/m 0 min 0 min 0,0 UV-I 0 W/m 12,9 km/h (3 Bft)
02.06.2013 22:06 13,4 C 11,8 C 65 % 1026,2 hPa 0,0 l/m 0 min 0 min 0,0 UV-I 0 W/m 15,4 km/h (3 Bft)
02.06.2013 22:08 13,3 C 11,8 C 65 % 1026,3 hPa 0,0 l/m 0 min 0 min 0,0 UV-I 0 W/m 18,0 km/h (3 Bft)
02.06.2013 22:10 13,3 C 11,8 C 65 % 1026,3 hPa 0,0 l/m 0 min 0 min 0,0 UV-I 0 W/m 15,4 km/h (3 Bft)
02.06.2013 22:12 13,2 C 11,8 C 65 % 1026,4 hPa 0,0 l/m 0 min 0 min 0,0 UV-I 0 W/m 23,2 km/h (4 Bft)
02.06.2013 22:14 13,2 C 11,8 C 65 % 1026,4 hPa 0,0 l/m 0 min 0 min 0,0 UV-I 0 W/m 15,4 km/h (3 Bft)
02.06.2013 22:16 13,2 C 11,8 C 65 % 1026,4 hPa 0,0 l/m 0 min 0 min 0,0 UV-I 0 W/m 12,9 km/h (3 Bft)
02.06.2013 22:18 13,1 C 11,8 C 66 % 1026,4 hPa 0,0 l/m 0 min 0 min 0,0 UV-I 0 W/m 15,4 km/h (3 Bft)
02.06.2013 22:20 13,1 C 11,8 C 66 % 1026,4 hPa 0,0 l/m 0 min 0 min 0,0 UV-I 0 W/m 10,3 km/h (2 Bft)
02.06.2013 22:22 13,1 C 11,8 C 66 % 1026,5 hPa 0,0 l/m 0 min 0 min 0,0 UV-I 0 W/m 18,0 km/h (3 Bft)
02.06.2013 22:24 13,1 C 11,8 C 66 % 1026,5 hPa 0,0 l/m 0 min 0 min 0,0 UV-I 0 W/m 10,3 km/h (2 Bft)
02.06.2013 22:26 13,0 C 11,8 C 66 % 1026,5 hPa 0,0 l/m 0 min 0 min 0,0 UV-I 0 W/m 18,0 km/h (3 Bft)
02.06.2013 22:28 13,0 C 11,2 C 66 % 1026,4 hPa 0,0 l/m 0 min 0 min 0,0 UV-I 0 W/m 12,9 km/h (3 Bft)
02.06.2013 22:30 13,0 C 11,2 C 66 % 1026,5 hPa 0,0 l/m 0 min 0 min 0,0 UV-I 0 W/m 15,4 km/h (3 Bft)
02.06.2013 22:32 12,9 C 11,2 C 66 % 1026,5 hPa 0,0 l/m 0 min 0 min 0,0 UV-I 0 W/m 15,4 km/h (3 Bft)
02.06.2013 22:34 12,9 C 11,2 C 66 % 1026,5 hPa 0,0 l/m 0 min 0 min 0,0 UV-I 0 W/m 15,4 km/h (3 Bft)
02.06.2013 22:36 12,9 C 11,2 C 66 % 1026,6 hPa 0,0 l/m 0 min 0 min 0,0 UV-I 0 W/m 12,9 km/h (3 Bft)
02.06.2013 22:38 12,9 C 11,2 C 66 % 1026,6 hPa 0,0 l/m 0 min 0 min 0,0 UV-I 0 W/m 12,9 km/h (3 Bft)
02.06.2013 22:40 12,8 C 11,2 C 66 % 1026,6 hPa 0,0 l/m 0 min 0 min 0,0 UV-I 0 W/m 15,4 km/h (3 Bft)
02.06.2013 22:42 12,8 C 11,2 C 66 % 1026,6 hPa 0,0 l/m 0 min 0 min 0,0 UV-I 0 W/m 10,3 km/h (2 Bft)
02.06.2013 22:44 12,8 C 11,2 C 67 % 1026,6 hPa 0,0 l/m 0 min 0 min 0,0 UV-I 0 W/m 7,7 km/h (2 Bft)
02.06.2013 22:46 12,8 C 11,2 C 67 % 1026,6 hPa 0,0 l/m 0 min 0 min 0,0 UV-I 0 W/m 7,7 km/h (2 Bft)
02.06.2013 22:48 12,8 C 11,2 C 67 % 1026,6 hPa 0,0 l/m 0 min 0 min 0,0 UV-I 0 W/m 7,7 km/h (2 Bft)
02.06.2013 22:50 12,7 C 11,2 C 67 % 1026,7 hPa 0,0 l/m 0 min 0 min 0,0 UV-I 0 W/m 15,4 km/h (3 Bft)
02.06.2013 22:52 12,7 C 11,2 C 67 % 1026,7 hPa 0,0 l/m 0 min 0 min 0,0 UV-I 0 W/m 12,9 km/h (3 Bft)
02.06.2013 22:54 12,7 C 11,2 C 67 % 1026,7 hPa 0,0 l/m 0 min 0 min 0,0 UV-I 0 W/m 15,4 km/h (3 Bft)
02.06.2013 22:56 12,6 C 11,2 C 67 % 1026,7 hPa 0,0 l/m 0 min 0 min 0,0 UV-I 0 W/m 18,0 km/h (3 Bft)
02.06.2013 22:58 12,6 C 11,2 C 67 % 1026,7 hPa 0,0 l/m 0 min 0 min 0,0 UV-I 0 W/m 10,3 km/h (2 Bft)
02.06.2013 23:00 12,6 C 11,2 C 67 % 1026,7 hPa 0,0 l/m 0 min 0 min 0,0 UV-I 0 W/m 15,4 km/h (3 Bft)
02.06.2013 23:02 12,5 C 11,2 C 67 % 1026,9 hPa 0,0 l/m 0 min 0 min 0,0 UV-I 0 W/m 12,9 km/h (3 Bft)
02.06.2013 23:04 12,4 C 10,7 C 67 % 1026,8 hPa 0,0 l/m 0 min 0 min 0,0 UV-I 0 W/m 10,3 km/h (2 Bft)
02.06.2013 23:06 12,4 C 10,7 C 67 % 1026,9 hPa 0,0 l/m 0 min 0 min 0,0 UV-I 0 W/m 10,3 km/h (2 Bft)
02.06.2013 23:08 12,4 C 10,7 C 68 % 1026,9 hPa 0,0 l/m 0 min 0 min 0,0 UV-I 0 W/m 10,3 km/h (2 Bft)
02.06.2013 23:10 12,3 C 10,7 C 68 % 1026,9 hPa 0,0 l/m 0 min 0 min 0,0 UV-I 0 W/m 10,3 km/h (2 Bft)
02.06.2013 23:12 12,3 C 10,7 C 68 % 1027,0 hPa 0,0 l/m 0 min 0 min 0,0 UV-I 0 W/m 12,9 km/h (3 Bft)
02.06.2013 23:14 12,3 C 10,7 C 68 % 1027,0 hPa 0,0 l/m 0 min 0 min 0,0 UV-I 0 W/m 7,7 km/h (2 Bft)
02.06.2013 23:16 12,2 C 10,7 C 68 % 1027,0 hPa 0,0 l/m 0 min 0 min 0,0 UV-I 0 W/m 5,1 km/h (1 Bft)
02.06.2013 23:18 12,2 C 10,7 C 68 % 1027,0 hPa 0,0 l/m 0 min 0 min 0,0 UV-I 0 W/m 7,7 km/h (2 Bft)
02.06.2013 23:20 12,2 C 10,7 C 68 % 1027,0 hPa 0,0 l/m 0 min 0 min 0,0 UV-I 0 W/m 7,7 km/h (2 Bft)
02.06.2013 23:22 12,1 C 10,7 C 68 % 1027,0 hPa 0,0 l/m 0 min 0 min 0,0 UV-I 0 W/m 2,6 km/h (1 Bft)
02.06.2013 23:24 12,1 C 10,7 C 68 % 1027,1 hPa 0,0 l/m 0 min 0 min 0,0 UV-I 0 W/m 10,3 km/h (2 Bft)
02.06.2013 23:26 12,0 C 10,7 C 68 % 1027,1 hPa 0,0 l/m 0 min 0 min 0,0 UV-I 0 W/m 10,3 km/h (2 Bft)
02.06.2013 23:28 11,9 C 10,7 C 68 % 1027,2 hPa 0,0 l/m 0 min 0 min 0,0 UV-I 0 W/m 5,1 km/h (1 Bft)
02.06.2013 23:30 11,9 C 10,7 C 68 % 1027,1 hPa 0,0 l/m 0 min 0 min 0,0 UV-I 0 W/m 7,7 km/h (2 Bft)
02.06.2013 23:32 11,9 C 10,1 C 68 % 1027,1 hPa 0,0 l/m 0 min 0 min 0,0 UV-I 0 W/m 0,0 km/h (0 Bft)
02.06.2013 23:34 11,8 C 10,1 C 68 % 1027,1 hPa 0,0 l/m 0 min 0 min 0,0 UV-I 0 W/m 0,0 km/h (0 Bft)
02.06.2013 23:36 11,8 C 10,1 C 68 % 1027,2 hPa 0,0 l/m 0 min 0 min 0,0 UV-I 0 W/m 5,1 km/h (1 Bft)
02.06.2013 23:38 11,8 C 10,1 C 68 % 1027,2 hPa 0,0 l/m 0 min 0 min 0,0 UV-I 0 W/m 10,3 km/h (2 Bft)
02.06.2013 23:40 11,7 C 10,1 C 68 % 1027,2 hPa 0,0 l/m 0 min 0 min 0,0 UV-I 0 W/m 0,0 km/h (0 Bft)
02.06.2013 23:42 11,7 C 10,1 C 68 % 1027,2 hPa 0,0 l/m 0 min 0 min 0,0 UV-I 0 W/m 7,7 km/h (2 Bft)
02.06.2013 23:44 11,7 C 10,1 C 68 % 1027,2 hPa 0,0 l/m 0 min 0 min 0,0 UV-I 0 W/m 7,7 km/h (2 Bft)
02.06.2013 23:46 11,6 C 10,1 C 68 % 1027,2 hPa 0,0 l/m 0 min 0 min 0,0 UV-I 0 W/m 2,6 km/h (1 Bft)
02.06.2013 23:48 11,6 C 10,1 C 68 % 1027,2 hPa 0,0 l/m 0 min 0 min 0,0 UV-I 0 W/m 5,1 km/h (1 Bft)
02.06.2013 23:50 11,6 C 10,1 C 69 % 1027,2 hPa 0,0 l/m 0 min 0 min 0,0 UV-I 0 W/m 5,1 km/h (1 Bft)
02.06.2013 23:52 11,5 C 10,1 C 69 % 1027,2 hPa 0,0 l/m 0 min 0 min 0,0 UV-I 0 W/m 2,6 km/h (1 Bft)
02.06.2013 23:54 11,5 C 9,6 C 69 % 1027,2 hPa 0,0 l/m 0 min 0 min 0,0 UV-I 0 W/m 7,7 km/h (2 Bft)
02.06.2013 23:56 11,5 C 9,6 C 69 % 1027,3 hPa 0,0 l/m 0 min 0 min 0,0 UV-I 0 W/m 0,0 km/h (0 Bft)
02.06.2013 23:58 11,4 C 9,6 C 70 % 1027,3 hPa 0,0 l/m 0 min 0 min 0,0 UV-I 0 W/m 2,6 km/h (1 Bft)
_ Min-Zeit 05:02 04:16 15:12 00:00 - - - - - 00:00
Minimum _ 6,2 C 4,6 C 45 % 1021,3 hPa - - - - - 0,0 km/h (0 Bft)
_ Max-Zeit 16:56 12:46 07:46 23:56 00:00 07:46 00:00 13:56 13:12 17:36
Maximum _ 18,3 C 24,0 C 97 % 1027,3 hPa 0,0 l/m 2 min 0 min 4,9 UV-I 896 W/m 48,9 km/h
N-NW (6 Bft)
Durchschnitt _ 12,4 C 12,8 C 71 % 1023,9 hPa #0,0 l/m #8:46 h #0 min. 2,8 UV-I 430 W/m 14,4 km/h (3 Bft)
© 2013 W. Hausmann